Wetterdaten: Montag, 25.12.2017
Datum Zeit Temp. Aussen Temp. o. S. +5cm Feuchte Auss BlattFeu 1 Luftdruck Regen Sonnenschein Regendauer Solar Windben Empfang
25.12.2017 00:00 8,7 C 8,3 C 7,2 C 92 % 0 lf 1021,1 hPa 0,0 l/m 0 min 0 min 0 W/m 22,5 km/h (4 Bft) 95,74 %
25.12.2017 00:02 8,7 C 8,3 C 7,2 C 91 % 0 lf 1021,0 hPa 0,0 l/m 0 min 0 min 0 W/m 18,0 km/h (3 Bft) 95,65 %
25.12.2017 00:04 8,7 C 8,3 C 7,2 C 91 % 0 lf 1021,0 hPa 0,0 l/m 0 min 0 min 0 W/m 18,0 km/h (3 Bft) 97,83 %
25.12.2017 00:08 8,7 C 8,3 C 7,2 C 91 % 0 lf 1021,0 hPa 0,0 l/m 0 min 0 min 0 W/m 24,8 km/h (4 Bft) 97,62 %
25.12.2017 00:10 8,6 C 8,3 C 7,2 C 91 % 0 lf 1021,0 hPa 0,0 l/m 0 min 0 min 0 W/m 20,3 km/h (4 Bft) 97,87 %
25.12.2017 00:12 8,6 C 8,3 C 7,2 C 91 % 0 lf 1021,0 hPa 0,0 l/m 0 min 0 min 0 W/m 27,0 km/h (4 Bft) 93,62 %
25.12.2017 00:14 8,6 C 8,3 C 7,2 C 91 % 0 lf 1021,0 hPa 0,0 l/m 0 min 0 min 0 W/m 29,3 km/h (5 Bft) 97,87 %
25.12.2017 00:16 8,7 C 8,3 C 7,2 C 91 % 0 lf 1021,0 hPa 0,0 l/m 0 min 0 min 0 W/m 24,8 km/h (4 Bft) 97,87 %
25.12.2017 00:18 8,6 C 8,3 C 7,2 C 91 % 0 lf 1021,0 hPa 0,0 l/m 0 min 0 min 0 W/m 31,5 km/h (5 Bft) 97,87 %
25.12.2017 00:20 8,6 C 8,3 C 7,2 C 91 % 0 lf 1020,9 hPa 0,0 l/m 0 min 0 min 0 W/m 22,5 km/h (4 Bft) 95,65 %
25.12.2017 00:22 8,6 C 8,3 C 7,2 C 91 % 0 lf 1020,9 hPa 0,0 l/m 0 min 0 min 0 W/m 13,5 km/h (3 Bft) 97,87 %
25.12.2017 00:24 8,6 C 8,3 C 7,2 C 91 % 0 lf 1020,9 hPa 0,0 l/m 0 min 0 min 0 W/m 20,3 km/h (4 Bft) 97,87 %
25.12.2017 00:26 8,6 C 8,3 C 7,2 C 91 % 0 lf 1020,9 hPa 0,0 l/m 0 min 0 min 0 W/m 27,0 km/h (4 Bft) 100,00 %
25.12.2017 00:28 8,6 C 8,3 C 7,2 C 91 % 0 lf 1021,0 hPa 0,0 l/m 0 min 0 min 0 W/m 29,3 km/h (5 Bft) 97,87 %
25.12.2017 00:30 8,5 C 8,3 C 7,2 C 91 % 0 lf 1020,9 hPa 0,0 l/m 0 min 0 min 0 W/m 29,3 km/h (5 Bft) 95,65 %
25.12.2017 00:32 8,5 C 8,3 C 7,2 C 91 % 0 lf 1020,9 hPa 0,0 l/m 0 min 0 min 0 W/m 20,3 km/h (4 Bft) 97,87 %
25.12.2017 00:34 8,5 C 8,3 C 7,2 C 91 % 0 lf 1021,0 hPa 0,0 l/m 0 min 0 min 0 W/m 20,3 km/h (4 Bft) 100,00 %
25.12.2017 00:36 8,5 C 8,3 C 7,2 C 91 % 0 lf 1020,9 hPa 0,0 l/m 0 min 0 min 0 W/m 27,0 km/h (4 Bft) 100,00 %
25.12.2017 00:38 8,4 C 8,3 C 7,2 C 91 % 0 lf 1020,9 hPa 0,0 l/m 0 min 0 min 0 W/m 33,8 km/h (5 Bft) 100,00 %
25.12.2017 00:40 8,4 C 8,3 C 7,2 C 91 % 0 lf 1020,9 hPa 0,0 l/m 0 min 0 min 0 W/m 36,0 km/h (5 Bft) 97,87 %
25.12.2017 00:42 8,4 C 8,3 C 7,2 C 91 % 0 lf 1020,9 hPa 0,0 l/m 0 min 0 min 0 W/m 33,8 km/h (5 Bft) 100,00 %
25.12.2017 00:44 8,4 C 8,3 C 7,2 C 91 % 0 lf 1020,9 hPa 0,0 l/m 0 min 0 min 0 W/m 31,5 km/h (5 Bft) 100,00 %
25.12.2017 00:46 8,4 C 8,3 C 7,2 C 91 % 0 lf 1020,9 hPa 0,0 l/m 0 min 0 min 0 W/m 31,5 km/h (5 Bft) 97,87 %
25.12.2017 00:48 8,4 C 8,3 C 7,2 C 91 % 0 lf 1021,0 hPa 0,0 l/m 0 min 0 min 0 W/m 38,3 km/h (5 Bft) 97,87 %
25.12.2017 00:50 8,4 C 8,3 C 7,2 C 91 % 0 lf 1020,9 hPa 0,0 l/m 0 min 0 min 0 W/m 38,3 km/h (5 Bft) 100,00 %
25.12.2017 00:52 8,4 C 8,3 C 7,2 C 91 % 2 lf 1020,9 hPa 0,0 l/m 0 min 0 min 0 W/m 31,5 km/h (5 Bft) 95,74 %
25.12.2017 00:54 8,4 C 8,3 C 7,2 C 91 % 1 lf 1021,0 hPa 0,0 l/m 0 min 0 min 0 W/m 29,3 km/h (5 Bft) 100,00 %
25.12.2017 00:56 8,4 C 8,3 C 6,7 C 91 % 0 lf 1021,0 hPa 0,0 l/m 0 min 0 min 0 W/m 27,0 km/h (4 Bft) 100,00 %
25.12.2017 00:58 8,4 C 7,8 C 6,7 C 91 % 0 lf 1020,9 hPa 0,0 l/m 0 min 0 min 0 W/m 27,0 km/h (4 Bft) 100,00 %
25.12.2017 01:00 8,4 C 7,8 C 6,7 C 91 % 0 lf 1021,0 hPa 0,0 l/m 0 min 0 min 0 W/m 27,0 km/h (4 Bft) 100,00 %
25.12.2017 01:02 8,3 C 7,8 C 6,7 C 91 % 0 lf 1020,9 hPa 0,0 l/m 0 min 0 min 0 W/m 22,5 km/h (4 Bft) 97,87 %
25.12.2017 01:04 8,3 C 7,8 C 6,7 C 92 % 0 lf 1021,0 hPa 0,0 l/m 0 min 0 min 0 W/m 29,3 km/h (5 Bft) 100,00 %
25.12.2017 01:06 8,3 C 7,8 C 6,7 C 92 % 0 lf 1021,0 hPa 0,0 l/m 0 min 0 min 0 W/m 31,5 km/h (5 Bft) 100,00 %
25.12.2017 01:08 8,3 C 7,8 C 6,7 C 92 % 0 lf 1020,9 hPa 0,0 l/m 0 min 0 min 0 W/m 31,5 km/h (5 Bft) 100,00 %
25.12.2017 01:10 8,3 C 7,8 C 6,7 C 92 % 0 lf 1021,0 hPa 0,0 l/m 0 min 0 min 0 W/m 31,5 km/h (5 Bft) 100,00 %
25.12.2017 01:12 8,3 C 7,8 C 6,7 C 92 % 0 lf 1020,9 hPa 0,0 l/m 0 min 0 min 0 W/m 29,3 km/h (5 Bft) 97,87 %
25.12.2017 01:14 8,2 C 7,8 C 6,7 C 92 % 0 lf 1021,0 hPa 0,0 l/m 0 min 0 min 0 W/m 31,5 km/h (5 Bft) 100,00 %
25.12.2017 01:16 8,2 C 7,8 C 6,7 C 92 % 0 lf 1020,9 hPa 0,0 l/m 0 min 0 min 0 W/m 29,3 km/h (5 Bft) 100,00 %
25.12.2017 01:18 8,2 C 7,8 C 6,7 C 92 % 0 lf 1020,9 hPa 0,0 l/m 0 min 0 min 0 W/m 24,8 km/h (4 Bft) 97,83 %
25.12.2017 01:20 8,2 C 7,8 C 6,7 C 92 % 0 lf 1020,9 hPa 0,0 l/m 0 min 0 min 0 W/m 22,5 km/h (4 Bft) 97,87 %
25.12.2017 01:22 8,2 C 7,8 C 6,7 C 92 % 0 lf 1020,9 hPa 0,0 l/m 0 min 0 min 0 W/m 20,3 km/h (4 Bft) 97,87 %
25.12.2017 01:24 8,2 C 7,8 C 6,7 C 92 % 0 lf 1020,9 hPa 0,0 l/m 0 min 0 min 0 W/m 24,8 km/h (4 Bft) 97,87 %
25.12.2017 01:26 8,2 C 7,8 C 6,7 C 92 % 0 lf 1021,0 hPa 0,0 l/m 0 min 0 min 0 W/m 29,3 km/h (5 Bft) 95,74 %
25.12.2017 01:28 8,2 C 7,8 C 6,7 C 92 % 0 lf 1020,8 hPa 0,0 l/m 0 min 0 min 0 W/m 22,5 km/h (4 Bft) 93,62 %
25.12.2017 01:30 8,1 C 7,8 C 6,7 C 92 % 0 lf 1020,8 hPa 0,0 l/m 0 min 0 min 0 W/m 24,8 km/h (4 Bft) 97,83 %
25.12.2017 01:32 8,1 C 7,8 C 6,7 C 92 % 0 lf 1020,8 hPa 0,0 l/m 0 min 0 min 0 W/m 22,5 km/h (4 Bft) 97,87 %
25.12.2017 01:34 8,1 C 7,8 C 6,7 C 92 % 0 lf 1020,8 hPa 0,0 l/m 0 min 0 min 0 W/m 29,3 km/h (5 Bft) 97,87 %
25.12.2017 01:36 8,1 C 7,8 C 6,7 C 92 % 0 lf 1020,6 hPa 0,0 l/m 0 min 0 min 0 W/m 24,8 km/h (4 Bft) 93,62 %
25.12.2017 01:38 8,1 C 7,8 C 6,7 C 92 % 0 lf 1020,7 hPa 0,0 l/m 0 min 0 min 0 W/m 15,8 km/h (3 Bft) 93,62 %
25.12.2017 01:40 8,1 C 7,8 C 6,7 C 92 % 0 lf 1020,6 hPa 0,0 l/m 0 min 0 min 0 W/m 22,5 km/h (4 Bft) 97,87 %
25.12.2017 01:43 8,1 C 7,8 C 6,7 C 92 % 0 lf 1020,6 hPa 0,0 l/m 0 min 0 min 0 W/m 18,0 km/h (3 Bft) 95,71 %
25.12.2017 01:44 8,1 C 7,8 C 6,7 C 92 % 0 lf 1020,6 hPa 0,0 l/m 0 min 0 min 0 W/m 15,8 km/h (3 Bft) 91,30 %
25.12.2017 01:46 8,1 C 7,8 C 6,7 C 92 % 0 lf 1020,6 hPa 0,0 l/m 0 min 0 min 0 W/m 18,0 km/h (3 Bft) 93,62 %
25.12.2017 01:48 8,1 C 7,8 C 6,7 C 92 % 0 lf 1020,6 hPa 0,0 l/m 0 min 0 min 0 W/m 18,0 km/h (3 Bft) 95,74 %
25.12.2017 01:50 8,1 C 7,8 C 6,7 C 92 % 0 lf 1020,6 hPa 0,0 l/m 0 min 0 min 0 W/m 27,0 km/h (4 Bft) 95,74 %
25.12.2017 01:52 8,1 C 7,8 C 6,7 C 92 % 0 lf 1020,6 hPa 0,0 l/m 0 min 0 min 0 W/m 24,8 km/h (4 Bft) 95,74 %
25.12.2017 01:54 8,1 C 7,8 C 6,7 C 93 % 2 lf 1020,6 hPa 0,0 l/m 0 min 0 min 0 W/m 18,0 km/h (3 Bft) 89,13 %
25.12.2017 01:56 8,1 C 7,2 C 6,7 C 92 % 2 lf 1020,6 hPa 0,0 l/m 0 min 0 min 0 W/m 15,8 km/h (3 Bft) 95,74 %
25.12.2017 01:58 8,0 C 7,2 C 6,1 C 93 % 3 lf 1020,6 hPa 0,0 l/m 0 min 0 min 0 W/m 18,0 km/h (3 Bft) 93,62 %
25.12.2017 02:00 8,0 C 7,2 C 6,1 C 93 % 3 lf 1020,5 hPa 0,0 l/m 0 min 0 min 0 W/m 18,0 km/h (3 Bft) 93,62 %
25.12.2017 02:02 8,0 C 7,2 C 6,1 C 93 % 3 lf 1020,5 hPa 0,0 l/m 0 min 0 min 0 W/m 18,0 km/h (3 Bft) 95,74 %
25.12.2017 02:04 8,0 C 7,2 C 6,1 C 93 % 4 lf 1020,5 hPa 0,0 l/m 0 min 0 min 0 W/m 22,5 km/h (4 Bft) 93,62 %
25.12.2017 02:06 7,9 C 7,2 C 6,1 C 93 % 4 lf 1020,4 hPa 0,0 l/m 0 min 0 min 0 W/m 18,0 km/h (3 Bft) 93,48 %
25.12.2017 02:08 7,9 C 7,2 C 6,1 C 93 % 4 lf 1020,5 hPa 0,0 l/m 0 min 0 min 0 W/m 22,5 km/h (4 Bft) 95,74 %
25.12.2017 02:10 7,9 C 7,2 C 6,1 C 93 % 4 lf 1020,5 hPa 0,0 l/m 0 min 0 min 0 W/m 18,0 km/h (3 Bft) 93,62 %
25.12.2017 02:12 7,9 C 7,2 C 6,1 C 93 % 4 lf 1020,4 hPa 0,0 l/m 0 min 0 min 0 W/m 15,8 km/h (3 Bft) 93,62 %
25.12.2017 02:14 7,9 C 7,2 C 6,1 C 93 % 4 lf 1020,4 hPa 0,0 l/m 0 min 0 min 0 W/m 20,3 km/h (4 Bft) 95,74 %
25.12.2017 02:16 7,8 C 7,2 C 6,1 C 94 % 3 lf 1020,4 hPa 0,0 l/m 0 min 0 min 0 W/m 20,3 km/h (4 Bft) 93,48 %
25.12.2017 02:18 7,8 C 7,2 C 6,1 C 93 % 4 lf 1020,4 hPa 0,0 l/m 0 min 0 min 0 W/m 20,3 km/h (4 Bft) 93,62 %
25.12.2017 02:20 7,8 C 7,2 C 6,1 C 94 % 4 lf 1020,5 hPa 0,0 l/m 0 min 0 min 0 W/m 18,0 km/h (3 Bft) 95,74 %
25.12.2017 02:22 7,8 C 7,2 C 6,1 C 94 % 4 lf 1020,4 hPa 0,0 l/m 0 min 0 min 0 W/m 15,8 km/h (3 Bft) 93,62 %
25.12.2017 02:24 7,8 C 7,2 C 6,1 C 94 % 5 lf 1020,3 hPa 0,0 l/m 0 min 0 min 0 W/m 18,0 km/h (3 Bft) 95,74 %
25.12.2017 02:26 7,8 C 7,2 C 6,1 C 94 % 8 lf 1020,4 hPa 0,0 l/m 0 min 0 min 0 W/m 20,3 km/h (4 Bft) 93,62 %
25.12.2017 02:28 7,8 C 7,2 C 6,1 C 94 % 9 lf 1020,4 hPa 0,0 l/m 0 min 0 min 0 W/m 18,0 km/h (3 Bft) 91,30 %
25.12.2017 02:30 7,8 C 7,2 C 6,1 C 94 % 9 lf 1020,4 hPa 0,0 l/m 0 min 0 min 0 W/m 18,0 km/h (3 Bft) 91,49 %
25.12.2017 02:32 7,7 C 7,2 C 6,1 C 94 % 9 lf 1020,4 hPa 0,0 l/m 0 min 0 min 0 W/m 27,0 km/h (4 Bft) 95,74 %
25.12.2017 02:34 7,7 C 7,2 C 6,1 C 94 % 9 lf 1020,4 hPa 0,0 l/m 0 min 0 min 0 W/m 18,0 km/h (3 Bft) 97,87 %
25.12.2017 02:36 7,7 C 7,2 C 6,1 C 94 % 9 lf 1020,4 hPa 0,0 l/m 0 min 0 min 0 W/m 15,8 km/h (3 Bft) 95,74 %
25.12.2017 02:38 7,7 C 7,2 C 6,1 C 94 % 9 lf 1020,4 hPa 0,0 l/m 0 min 0 min 0 W/m 18,0 km/h (3 Bft) 95,74 %
25.12.2017 02:40 7,7 C 7,2 C 6,1 C 94 % 9 lf 1020,4 hPa 0,0 l/m 0 min 0 min 0 W/m 15,8 km/h (3 Bft) 95,65 %
25.12.2017 02:42 7,7 C 7,2 C 6,1 C 94 % 9 lf 1020,3 hPa 0,0 l/m 0 min 0 min 0 W/m 11,3 km/h (2 Bft) 97,87 %
25.12.2017 02:44 7,7 C 7,2 C 6,1 C 94 % 8 lf 1020,3 hPa 0,0 l/m 0 min 0 min 0 W/m 22,5 km/h (4 Bft) 97,87 %
25.12.2017 02:46 7,7 C 7,2 C 6,1 C 94 % 8 lf 1020,4 hPa 0,0 l/m 0 min 0 min 0 W/m 24,8 km/h (4 Bft) 93,62 %
25.12.2017 02:48 7,7 C 7,2 C 6,1 C 95 % 7 lf 1020,3 hPa 0,0 l/m 0 min 0 min 0 W/m 18,0 km/h (3 Bft) 100,00 %
25.12.2017 02:50 7,7 C 7,2 C 6,1 C 95 % 6 lf 1020,4 hPa 0,0 l/m 0 min 0 min 0 W/m 20,3 km/h (4 Bft) 100,00 %
25.12.2017 02:52 7,7 C 7,2 C 6,1 C 95 % 5 lf 1020,3 hPa 0,0 l/m 0 min 0 min 0 W/m 18,0 km/h (3 Bft) 97,83 %
25.12.2017 02:54 7,6 C 7,2 C 6,1 C 95 % 5 lf 1020,3 hPa 0,0 l/m 0 min 0 min 0 W/m 18,0 km/h (3 Bft) 97,87 %
25.12.2017 02:56 7,6 C 7,2 C 6,1 C 95 % 4 lf 1020,3 hPa 0,0 l/m 0 min 0 min 0 W/m 20,3 km/h (4 Bft) 100,00 %
25.12.2017 02:58 7,6 C 7,2 C 6,1 C 95 % 4 lf 1020,2 hPa 0,0 l/m 0 min 0 min 0 W/m 22,5 km/h (4 Bft) 100,00 %
25.12.2017 03:00 7,6 C 7,2 C 6,1 C 95 % 3 lf 1020,2 hPa 0,0 l/m 0 min 0 min 0 W/m 20,3 km/h (4 Bft) 100,00 %
25.12.2017 03:02 7,6 C 7,2 C 6,1 C 95 % 3 lf 1020,2 hPa 0,0 l/m 0 min 0 min 0 W/m 15,8 km/h (3 Bft) 95,74 %
25.12.2017 03:04 7,6 C 7,2 C 6,1 C 95 % 2 lf 1020,2 hPa 0,0 l/m 0 min 0 min 0 W/m 22,5 km/h (4 Bft) 100,00 %
25.12.2017 03:06 7,6 C 7,2 C 6,1 C 95 % 2 lf 1020,2 hPa 0,0 l/m 0 min 0 min 0 W/m 20,3 km/h (4 Bft) 97,87 %
25.12.2017 03:08 7,6 C 7,2 C 6,1 C 95 % 1 lf 1020,1 hPa 0,0 l/m 0 min 0 min 0 W/m 20,3 km/h (4 Bft) 95,74 %
25.12.2017 03:10 7,6 C 7,2 C 6,1 C 95 % 1 lf 1020,2 hPa 0,0 l/m 0 min 0 min 0 W/m 27,0 km/h (4 Bft) 95,74 %
25.12.2017 03:12 7,6 C 7,2 C 6,1 C 95 % 0 lf 1020,2 hPa 0,0 l/m 0 min 0 min 0 W/m 27,0 km/h (4 Bft) 95,74 %
25.12.2017 03:14 7,6 C 7,2 C 6,1 C 95 % 0 lf 1020,1 hPa 0,0 l/m 0 min 0 min 0 W/m 29,3 km/h (5 Bft) 97,87 %
25.12.2017 03:16 7,6 C 7,2 C 6,1 C 95 % 0 lf 1020,0 hPa 0,0 l/m 0 min 0 min 0 W/m 15,8 km/h (3 Bft) 93,48 %
25.12.2017 03:18 7,6 C 7,2 C 6,1 C 95 % 0 lf 1020,0 hPa 0,0 l/m 0 min 0 min 0 W/m 27,0 km/h (4 Bft) 95,74 %
25.12.2017 03:20 7,6 C 7,2 C 6,1 C 95 % 0 lf 1020,0 hPa 0,0 l/m 0 min 0 min 0 W/m 18,0 km/h (3 Bft) 89,36 %
25.12.2017 03:22 7,6 C 7,2 C 6,1 C 95 % 0 lf 1019,9 hPa 0,0 l/m 0 min 0 min 0 W/m 20,3 km/h (4 Bft) 95,74 %
25.12.2017 03:24 7,6 C 7,2 C 6,1 C 95 % 0 lf 1020,0 hPa 0,0 l/m 0 min 0 min 0 W/m 22,5 km/h (4 Bft) 95,74 %
25.12.2017 03:26 7,6 C 7,2 C 6,1 C 95 % 0 lf 1019,9 hPa 0,0 l/m 0 min 0 min 0 W/m 22,5 km/h (4 Bft) 95,65 %
25.12.2017 03:28 7,6 C 7,2 C 6,1 C 95 % 0 lf 1019,9 hPa 0,0 l/m 0 min 0 min 0 W/m 27,0 km/h (4 Bft) 95,74 %
25.12.2017 03:30 7,6 C 7,2 C 6,1 C 95 % 0 lf 1019,9 hPa 0,0 l/m 0 min 0 min 0 W/m 15,8 km/h (3 Bft) 93,62 %
25.12.2017 03:32 7,6 C 7,2 C 6,1 C 95 % 0 lf 1019,9 hPa 0,0 l/m 0 min 0 min 0 W/m 27,0 km/h (4 Bft) 95,74 %
25.12.2017 03:34 7,6 C 7,8 C 6,1 C 95 % 0 lf 1019,8 hPa 0,0 l/m 0 min 0 min 0 W/m 24,8 km/h (4 Bft) 95,74 %
25.12.2017 03:36 7,6 C 7,2 C 6,1 C 95 % 0 lf 1019,8 hPa 0,0 l/m 0 min 0 min 0 W/m 29,3 km/h (5 Bft) 93,62 %
25.12.2017 03:38 7,6 C 7,2 C 6,1 C 95 % 0 lf 1019,8 hPa 0,0 l/m 0 min 0 min 0 W/m 29,3 km/h (5 Bft) 93,48 %
25.12.2017 03:40 7,6 C 7,8 C 6,1 C 95 % 0 lf 1019,8 hPa 0,0 l/m 0 min 0 min 0 W/m 31,5 km/h (5 Bft) 95,74 %
25.12.2017 03:42 7,6 C 7,8 C 6,1 C 95 % 0 lf 1019,8 hPa 0,0 l/m 0 min 0 min 0 W/m 29,3 km/h (5 Bft) 95,74 %
25.12.2017 03:44 7,6 C 7,8 C 6,1 C 95 % 0 lf 1019,8 hPa 0,0 l/m 0 min 0 min 0 W/m 29,3 km/h (5 Bft) 95,74 %
25.12.2017 03:46 7,6 C 7,8 C 6,1 C 95 % 0 lf 1019,8 hPa 0,0 l/m 0 min 0 min 0 W/m 18,0 km/h (3 Bft) 95,74 %
25.12.2017 03:48 7,6 C 7,8 C 6,1 C 95 % 0 lf 1019,8 hPa 0,0 l/m 0 min 0 min 0 W/m 22,5 km/h (4 Bft) 91,49 %
25.12.2017 03:50 7,7 C 7,8 C 6,1 C 95 % 0 lf 1019,8 hPa 0,0 l/m 0 min 0 min 0 W/m 27,0 km/h (4 Bft) 93,48 %
25.12.2017 03:52 7,7 C 7,8 C 6,1 C 95 % 0 lf 1019,8 hPa 0,0 l/m 0 min 0 min 0 W/m 18,0 km/h (3 Bft) 95,74 %
25.12.2017 03:54 7,7 C 7,8 C 6,1 C 95 % 1 lf 1019,8 hPa 0,0 l/m 0 min 0 min 0 W/m 18,0 km/h (3 Bft) 97,87 %
25.12.2017 03:56 7,7 C 7,8 C 6,1 C 95 % 1 lf 1019,8 hPa 0,0 l/m 0 min 0 min 0 W/m 24,8 km/h (4 Bft) 97,87 %
25.12.2017 03:58 7,7 C 7,2 C 6,1 C 95 % 0 lf 1019,7 hPa 0,0 l/m 0 min 0 min 0 W/m 20,3 km/h (4 Bft) 97,87 %
25.12.2017 04:00 7,7 C 7,2 C 6,1 C 95 % 0 lf 1019,7 hPa 0,0 l/m 0 min 0 min 0 W/m 22,5 km/h (4 Bft) 95,74 %
25.12.2017 04:05 7,7 C 7,8 C 6,1 C 95 % 0 lf 1019,7 hPa 0,0 l/m 0 min 0 min 0 W/m 22,5 km/h (4 Bft) 94,92 %
25.12.2017 04:06 7,7 C 7,2 C 6,1 C 95 % 0 lf 1019,6 hPa 0,0 l/m 0 min 0 min 0 W/m 9,0 km/h (2 Bft) 100,00 %
25.12.2017 04:08 7,7 C 7,8 C 6,1 C 95 % 0 lf 1019,7 hPa 0,0 l/m 0 min 0 min 0 W/m 20,3 km/h (4 Bft) 100,00 %
25.12.2017 04:10 7,7 C 7,8 C 6,1 C 95 % 0 lf 1019,6 hPa 0,0 l/m 0 min 0 min 0 W/m 33,8 km/h (5 Bft) 100,00 %
25.12.2017 04:12 7,7 C 7,8 C 6,1 C 95 % 0 lf 1019,6 hPa 0,0 l/m 0 min 0 min 0 W/m 18,0 km/h (3 Bft) 100,00 %
25.12.2017 04:14 7,7 C 7,8 C 6,1 C 95 % 0 lf 1019,5 hPa 0,0 l/m 0 min 0 min 0 W/m 27,0 km/h (4 Bft) 100,00 %
25.12.2017 04:16 7,7 C 7,8 C 6,1 C 95 % 0 lf 1019,5 hPa 0,0 l/m 0 min 0 min 0 W/m 24,8 km/h (4 Bft) 100,00 %
25.12.2017 04:18 7,7 C 7,8 C 6,7 C 95 % 0 lf 1019,5 hPa 0,0 l/m 0 min 0 min 0 W/m 20,3 km/h (4 Bft) 100,00 %
25.12.2017 04:20 7,7 C 7,8 C 6,7 C 95 % 0 lf 1019,6 hPa 0,0 l/m 0 min 0 min 0 W/m 24,8 km/h (4 Bft) 93,62 %
25.12.2017 04:22 7,7 C 7,8 C 6,7 C 95 % 0 lf 1019,5 hPa 0,0 l/m 0 min 0 min 0 W/m 27,0 km/h (4 Bft) 100,00 %
25.12.2017 04:24 7,7 C 7,8 C 6,7 C 95 % 0 lf 1019,5 hPa 0,0 l/m 0 min 0 min 0 W/m 24,8 km/h (4 Bft) 97,87 %
25.12.2017 04:26 7,7 C 7,8 C 6,7 C 95 % 0 lf 1019,5 hPa 0,0 l/m 0 min 0 min 0 W/m 27,0 km/h (4 Bft) 97,83 %
25.12.2017 04:28 7,7 C 7,8 C 6,7 C 95 % 0 lf 1019,5 hPa 0,0 l/m 0 min 0 min 0 W/m 29,3 km/h (5 Bft) 100,00 %
25.12.2017 04:30 7,7 C 7,8 C 6,7 C 95 % 0 lf 1019,5 hPa 0,0 l/m 0 min 0 min 0 W/m 27,0 km/h (4 Bft) 95,74 %
25.12.2017 04:32 7,7 C 7,8 C 6,7 C 95 % 0 lf 1019,4 hPa 0,0 l/m 0 min 0 min 0 W/m 20,3 km/h (4 Bft) 100,00 %
25.12.2017 04:34 7,7 C 7,8 C 6,7 C 95 % 0 lf 1019,4 hPa 0,0 l/m 0 min 0 min 0 W/m 24,8 km/h (4 Bft) 100,00 %
25.12.2017 04:36 7,7 C 7,8 C 6,7 C 95 % 0 lf 1019,4 hPa 0,0 l/m 0 min 0 min 0 W/m 27,0 km/h (4 Bft) 97,83 %
25.12.2017 04:38 7,8 C 7,8 C 6,7 C 95 % 0 lf 1019,4 hPa 0,0 l/m 0 min 0 min 0 W/m 20,3 km/h (4 Bft) 97,87 %
25.12.2017 04:40 7,8 C 7,8 C 6,7 C 94 % 0 lf 1019,3 hPa 0,0 l/m 0 min 0 min 0 W/m 24,8 km/h (4 Bft) 91,49 %
25.12.2017 04:42 7,8 C 7,8 C 6,7 C 94 % 0 lf 1019,2 hPa 0,0 l/m 0 min 0 min 0 W/m 22,5 km/h (4 Bft) 93,62 %
25.12.2017 04:44 7,8 C 7,8 C 6,7 C 95 % 0 lf 1019,3 hPa 0,0 l/m 0 min 0 min 0 W/m 27,0 km/h (4 Bft) 95,74 %
25.12.2017 04:46 7,8 C 7,8 C 6,7 C 94 % 0 lf 1019,3 hPa 0,0 l/m 0 min 0 min 0 W/m 22,5 km/h (4 Bft) 89,36 %
25.12.2017 04:48 7,8 C 7,8 C 6,7 C 94 % 0 lf 1019,1 hPa 0,0 l/m 0 min 0 min 0 W/m 31,5 km/h (5 Bft) 95,65 %
25.12.2017 04:50 7,8 C 7,8 C 6,7 C 94 % 0 lf 1019,2 hPa 0,0 l/m 0 min 0 min 0 W/m 15,8 km/h (3 Bft) 95,74 %
25.12.2017 04:52 7,8 C 7,8 C 6,7 C 94 % 1 lf 1019,2 hPa 0,0 l/m 0 min 0 min 0 W/m 24,8 km/h (4 Bft) 93,62 %
25.12.2017 04:54 7,8 C 7,8 C 6,7 C 94 % 0 lf 1019,1 hPa 0,0 l/m 0 min 0 min 0 W/m 24,8 km/h (4 Bft) 95,74 %
25.12.2017 04:56 7,8 C 7,8 C 6,7 C 94 % 1 lf 1019,1 hPa 0,0 l/m 0 min 0 min 0 W/m 29,3 km/h (5 Bft) 95,74 %
25.12.2017 04:58 7,8 C 7,8 C 6,7 C 94 % 1 lf 1019,1 hPa 0,0 l/m 0 min 0 min 0 W/m 24,8 km/h (4 Bft) 91,49 %
25.12.2017 05:00 7,8 C 7,8 C 6,7 C 94 % 0 lf 1019,1 hPa 0,0 l/m 0 min 0 min 0 W/m 24,8 km/h (4 Bft) 95,65 %
25.12.2017 05:02 7,8 C 7,8 C 6,7 C 94 % 0 lf 1019,0 hPa 0,0 l/m 0 min 0 min 0 W/m 22,5 km/h (4 Bft) 95,74 %
25.12.2017 05:04 7,8 C 7,8 C 6,7 C 94 % 0 lf 1019,0 hPa 0,0 l/m 0 min 0 min 0 W/m 22,5 km/h (4 Bft) 93,62 %
25.12.2017 05:06 7,8 C 7,8 C 6,7 C 94 % 0 lf 1019,0 hPa 0,0 l/m 0 min 0 min 0 W/m 36,0 km/h (5 Bft) 93,62 %
25.12.2017 05:08 7,8 C 7,8 C 6,7 C 94 % 0 lf 1019,0 hPa 0,0 l/m 0 min 0 min 0 W/m 22,5 km/h (4 Bft) 93,62 %
25.12.2017 05:10 7,8 C 7,8 C 6,7 C 94 % 0 lf 1018,9 hPa 0,0 l/m 0 min 0 min 0 W/m 22,5 km/h (4 Bft) 93,62 %
25.12.2017 05:12 7,8 C 7,8 C 6,7 C 94 % 0 lf 1018,9 hPa 0,0 l/m 0 min 0 min 0 W/m 29,3 km/h (5 Bft) 97,83 %
25.12.2017 05:14 7,8 C 7,8 C 6,7 C 94 % 0 lf 1018,9 hPa 0,0 l/m 0 min 0 min 0 W/m 24,8 km/h (4 Bft) 91,49 %
25.12.2017 05:16 7,8 C 7,8 C 6,7 C 94 % 0 lf 1018,9 hPa 0,0 l/m 0 min 0 min 0 W/m 31,5 km/h (5 Bft) 91,49 %
25.12.2017 05:18 7,8 C 7,8 C 6,7 C 94 % 0 lf 1018,9 hPa 0,0 l/m 0 min 0 min 0 W/m 24,8 km/h (4 Bft) 91,49 %
25.12.2017 05:20 7,8 C 7,8 C 6,7 C 93 % 0 lf 1018,9 hPa 0,0 l/m 0 min 0 min 0 W/m 20,3 km/h (4 Bft) 93,62 %
25.12.2017 05:22 7,8 C 7,8 C 6,7 C 93 % 0 lf 1018,9 hPa 0,0 l/m 0 min 0 min 0 W/m 15,8 km/h (3 Bft) 95,74 %
25.12.2017 05:24 7,8 C 7,8 C 6,7 C 93 % 0 lf 1018,9 hPa 0,0 l/m 0 min 0 min 0 W/m 20,3 km/h (4 Bft) 97,83 %
25.12.2017 05:26 7,9 C 7,8 C 6,7 C 93 % 0 lf 1018,9 hPa 0,0 l/m 0 min 0 min 0 W/m 15,8 km/h (3 Bft) 95,74 %
25.12.2017 05:28 7,9 C 7,8 C 6,7 C 93 % 0 lf 1018,8 hPa 0,0 l/m 0 min 0 min 0 W/m 15,8 km/h (3 Bft) 97,87 %
25.12.2017 05:30 7,9 C 7,8 C 6,7 C 93 % 0 lf 1018,8 hPa 0,0 l/m 0 min 0 min 0 W/m 15,8 km/h (3 Bft) 95,74 %
25.12.2017 05:32 7,9 C 7,8 C 6,7 C 93 % 0 lf 1018,8 hPa 0,0 l/m 0 min 0 min 0 W/m 13,5 km/h (3 Bft) 93,62 %
25.12.2017 05:34 7,9 C 7,8 C 6,7 C 93 % 0 lf 1018,8 hPa 0,0 l/m 0 min 0 min 0 W/m 11,3 km/h (2 Bft) 100,00 %
25.12.2017 05:35 7,9 C 7,8 C 6,7 C 93 % 0 lf 1018,8 hPa 0,0 l/m 0 min 0 min 0 W/m 13,5 km/h (3 Bft) 99,12 %
25.12.2017 05:40 7,9 C 7,8 C 6,7 C 93 % 0 lf 1018,9 hPa 0,0 l/m 0 min 0 min 0 W/m 13,5 km/h (3 Bft) 100,00 %
25.12.2017 05:45 7,9 C 7,8 C 6,7 C 93 % 0 lf 1018,8 hPa 0,0 l/m 0 min 0 min 0 W/m 22,5 km/h (4 Bft) 94,44 %
25.12.2017 05:46 7,9 C 7,8 C 6,7 C 92 % 0 lf 1018,8 hPa 0,0 l/m 0 min 0 min 0 W/m 27,0 km/h (4 Bft) 100,00 %
25.12.2017 05:48 7,9 C 7,8 C 6,7 C 92 % 0 lf 1018,8 hPa 0,0 l/m 0 min 0 min 0 W/m 24,8 km/h (4 Bft) 100,00 %
25.12.2017 05:50 7,9 C 7,8 C 6,7 C 92 % 0 lf 1018,8 hPa 0,0 l/m 0 min 0 min 0 W/m 22,5 km/h (4 Bft) 100,00 %
25.12.2017 05:52 7,9 C 7,8 C 6,7 C 92 % 0 lf 1018,7 hPa 0,0 l/m 0 min 0 min 0 W/m 27,0 km/h (4 Bft) 97,87 %
25.12.2017 05:54 7,9 C 7,8 C 6,7 C 92 % 0 lf 1018,8 hPa 0,0 l/m 0 min 0 min 0 W/m 20,3 km/h (4 Bft) 97,22 %
25.12.2017 05:56 7,9 C 7,8 C 6,7 C 92 % 0 lf 1018,7 hPa 0,0 l/m 0 min 0 min 0 W/m 27,0 km/h (4 Bft) 95,83 %
25.12.2017 05:58 8,0 C 7,8 C 6,7 C 92 % 0 lf 1018,7 hPa 0,0 l/m 0 min 0 min 0 W/m 15,8 km/h (3 Bft) 97,92 %
25.12.2017 06:00 8,0 C 7,8 C 6,7 C 92 % 0 lf 1018,7 hPa 0,0 l/m 0 min 0 min 0 W/m 22,5 km/h (4 Bft) 100,00 %
25.12.2017 06:02 8,0 C 7,8 C 6,7 C 92 % 0 lf 1018,7 hPa 0,0 l/m 0 min 0 min 0 W/m 24,8 km/h (4 Bft) 100,00 %
25.12.2017 06:04 8,0 C 7,8 C 6,7 C 92 % 0 lf 1018,7 hPa 0,0 l/m 0 min 0 min 0 W/m 20,3 km/h (4 Bft) 100,00 %
25.12.2017 06:06 8,0 C 7,8 C 6,7 C 92 % 0 lf 1018,7 hPa 0,0 l/m 0 min 0 min 0 W/m 24,8 km/h (4 Bft) 97,87 %
25.12.2017 06:10 8,0 C 7,8 C 6,7 C 92 % 0 lf 1018,7 hPa 0,0 l/m 0 min 0 min 0 W/m 27,0 km/h (4 Bft) 100,00 %
25.12.2017 06:12 8,0 C 7,8 C 6,7 C 92 % 0 lf 1018,7 hPa 0,0 l/m 0 min 0 min 0 W/m 24,8 km/h (4 Bft) 100,00 %
25.12.2017 06:14 8,0 C 7,8 C 6,7 C 92 % 0 lf 1018,7 hPa 0,0 l/m 0 min 0 min 0 W/m 15,8 km/h (3 Bft) 100,00 %
25.12.2017 06:16 8,0 C 7,8 C 6,7 C 92 % 0 lf 1018,7 hPa 0,0 l/m 0 min 0 min 0 W/m 24,8 km/h (4 Bft) 100,00 %
25.12.2017 06:18 8,0 C 7,8 C 6,7 C 92 % 0 lf 1018,6 hPa 0,0 l/m 0 min 0 min 0 W/m 24,8 km/h (4 Bft) 100,00 %
25.12.2017 06:20 8,0 C 7,8 C 6,7 C 92 % 0 lf 1018,6 hPa 0,0 l/m 0 min 0 min 0 W/m 20,3 km/h (4 Bft) 100,00 %
25.12.2017 06:22 8,0 C 7,8 C 6,7 C 92 % 0 lf 1018,6 hPa 0,0 l/m 0 min 0 min 0 W/m 20,3 km/h (4 Bft) 97,87 %
25.12.2017 06:24 8,0 C 7,8 C 6,7 C 92 % 0 lf 1018,6 hPa 0,0 l/m 0 min 0 min 0 W/m 22,5 km/h (4 Bft) 97,92 %
25.12.2017 06:26 8,0 C 7,8 C 6,7 C 92 % 0 lf 1018,5 hPa 0,0 l/m 0 min 0 min 0 W/m 27,0 km/h (4 Bft) 100,00 %
25.12.2017 06:28 8,0 C 7,8 C 6,7 C 92 % 0 lf 1018,6 hPa 0,0 l/m 0 min 0 min 0 W/m 27,0 km/h (4 Bft) 97,83 %
25.12.2017 06:30 8,0 C 7,8 C 6,7 C 92 % 0 lf 1018,4 hPa 0,0 l/m 0 min 0 min 0 W/m 27,0 km/h (4 Bft) 97,87 %
25.12.2017 06:32 8,0 C 7,8 C 6,7 C 92 % 0 lf 1018,5 hPa 0,0 l/m 0 min 0 min 0 W/m 24,8 km/h (4 Bft) 100,00 %
25.12.2017 06:34 8,0 C 7,8 C 6,7 C 92 % 0 lf 1018,4 hPa 0,0 l/m 0 min 0 min 0 W/m 33,8 km/h (5 Bft) 100,00 %
25.12.2017 06:36 8,0 C 7,8 C 6,7 C 92 % 0 lf 1018,4 hPa 0,0 l/m 0 min 0 min 0 W/m 27,0 km/h (4 Bft) 100,00 %
25.12.2017 06:38 8,0 C 7,8 C 6,7 C 92 % 0 lf 1018,4 hPa 0,0 l/m 0 min 0 min 0 W/m 24,8 km/h (4 Bft) 95,83 %
25.12.2017 06:40 8,0 C 7,8 C 6,7 C 92 % 0 lf 1018,4 hPa 0,0 l/m 0 min 0 min 0 W/m 22,5 km/h (4 Bft) 97,87 %
25.12.2017 06:42 8,0 C 7,8 C 6,7 C 92 % 0 lf 1018,3 hPa 0,0 l/m 0 min 0 min 0 W/m 27,0 km/h (4 Bft) 97,92 %
25.12.2017 06:44 8,0 C 7,8 C 6,7 C 92 % 0 lf 1018,3 hPa 0,0 l/m 0 min 0 min 0 W/m 29,3 km/h (5 Bft) 100,00 %
25.12.2017 06:46 8,0 C 7,8 C 6,7 C 92 % 0 lf 1018,2 hPa 0,0 l/m 0 min 0 min 0 W/m 22,5 km/h (4 Bft) 95,74 %
25.12.2017 06:48 8,0 C 7,8 C 6,7 C 92 % 0 lf 1018,3 hPa 0,0 l/m 0 min 0 min 0 W/m 20,3 km/h (4 Bft) 100,00 %
25.12.2017 06:50 7,9 C 7,8 C 6,7 C 92 % 0 lf 1018,3 hPa 0,0 l/m 0 min 0 min 0 W/m 24,8 km/h (4 Bft) 95,65 %
25.12.2017 06:52 7,9 C 7,8 C 6,7 C 92 % 0 lf 1018,2 hPa 0,0 l/m 0 min 0 min 0 W/m 22,5 km/h (4 Bft) 97,87 %
25.12.2017 06:54 7,9 C 7,8 C 6,7 C 92 % 0 lf 1018,2 hPa 0,0 l/m 0 min 0 min 0 W/m 15,8 km/h (3 Bft) 97,22 %
25.12.2017 06:56 7,9 C 7,8 C 6,7 C 92 % 0 lf 1018,2 hPa 0,0 l/m 0 min 0 min 0 W/m 18,0 km/h (3 Bft) 97,92 %
25.12.2017 06:58 7,9 C 7,8 C 6,7 C 92 % 0 lf 1018,3 hPa 0,0 l/m 0 min 0 min 0 W/m 24,8 km/h (4 Bft) 97,92 %
25.12.2017 07:00 7,9 C 7,8 C 6,7 C 92 % 0 lf 1018,2 hPa 0,0 l/m 0 min 0 min 0 W/m 15,8 km/h (3 Bft) 97,92 %
25.12.2017 07:02 7,9 C 7,8 C 6,7 C 92 % 0 lf 1018,2 hPa 0,0 l/m 0 min 0 min 0 W/m 13,5 km/h (3 Bft) 97,87 %
25.12.2017 07:04 7,9 C 7,8 C 6,7 C 92 % 0 lf 1018,2 hPa 0,0 l/m 0 min 0 min 0 W/m 24,8 km/h (4 Bft) 95,74 %
25.12.2017 07:06 7,9 C 7,8 C 6,7 C 92 % 0 lf 1018,2 hPa 0,0 l/m 0 min 0 min 0 W/m 24,8 km/h (4 Bft) 91,30 %
25.12.2017 07:08 7,9 C 7,8 C 6,7 C 92 % 0 lf 1018,1 hPa 0,0 l/m 0 min 0 min 0 W/m 27,0 km/h (4 Bft) 97,62 %
25.12.2017 07:10 7,9 C 7,8 C 6,7 C 92 % 0 lf 1018,2 hPa 0,0 l/m 0 min 0 min 0 W/m 20,3 km/h (4 Bft) 97,92 %
25.12.2017 07:12 7,9 C 7,8 C 6,7 C 92 % 0 lf 1018,2 hPa 0,0 l/m 0 min 0 min 0 W/m 27,0 km/h (4 Bft) 95,83 %
25.12.2017 07:14 7,9 C 7,8 C 6,7 C 92 % 0 lf 1018,1 hPa 0,0 l/m 0 min 0 min 0 W/m 18,0 km/h (3 Bft) 93,75 %
25.12.2017 07:16 7,9 C 7,8 C 6,7 C 92 % 0 lf 1018,2 hPa 0,0 l/m 0 min 0 min 0 W/m 18,0 km/h (3 Bft) 93,62 %
25.12.2017 07:18 8,0 C 7,8 C 6,7 C 91 % 0 lf 1018,1 hPa 0,0 l/m 0 min 0 min 0 W/m 20,3 km/h (4 Bft) 93,75 %
25.12.2017 07:20 8,0 C 7,8 C 6,7 C 91 % 0 lf 1018,1 hPa 0,0 l/m 0 min 0 min 0 W/m 24,8 km/h (4 Bft) 95,83 %
25.12.2017 07:22 7,9 C 7,8 C 6,7 C 91 % 0 lf 1018,2 hPa 0,0 l/m 0 min 0 min 0 W/m 24,8 km/h (4 Bft) 91,84 %
25.12.2017 07:24 8,0 C 7,8 C 6,7 C 91 % 0 lf 1018,1 hPa 0,0 l/m 0 min 0 min 0 W/m 22,5 km/h (4 Bft) 93,62 %
25.12.2017 07:26 8,0 C 7,8 C 6,7 C 91 % 0 lf 1018,1 hPa 0,0 l/m 0 min 0 min 0 W/m 20,3 km/h (4 Bft) 91,49 %
25.12.2017 07:28 8,0 C 7,8 C 6,7 C 91 % 0 lf 1018,1 hPa 0,0 l/m 0 min 0 min 0 W/m 22,5 km/h (4 Bft) 89,58 %
25.12.2017 07:30 8,0 C 7,8 C 6,7 C 91 % 0 lf 1018,1 hPa 0,0 l/m 0 min 0 min 0 W/m 15,8 km/h (3 Bft) 89,58 %
25.12.2017 07:32 8,0 C 7,8 C 6,7 C 91 % 0 lf 1018,1 hPa 0,0 l/m 0 min 0 min 0 W/m 18,0 km/h (3 Bft) 91,49 %
25.12.2017 07:34 8,0 C 7,8 C 6,7 C 91 % 0 lf 1018,2 hPa 0,0 l/m 0 min 0 min 0 W/m 22,5 km/h (4 Bft) 89,58 %
25.12.2017 07:36 8,0 C 7,8 C 6,7 C 91 % 0 lf 1018,2 hPa 0,0 l/m 0 min 0 min 0 W/m 20,3 km/h (4 Bft) 93,48 %
25.12.2017 07:38 8,0 C 7,8 C 6,7 C 90 % 0 lf 1018,2 hPa 0,0 l/m 0 min 0 min 0 W/m 20,3 km/h (4 Bft) 91,49 %
25.12.2017 07:40 8,0 C 7,8 C 6,7 C 90 % 0 lf 1018,2 hPa 0,0 l/m 0 min 0 min 0 W/m 15,8 km/h (3 Bft) 91,49 %
25.12.2017 07:42 8,1 C 7,8 C 6,7 C 90 % 0 lf 1018,1 hPa 0,0 l/m 0 min 0 min 0 W/m 22,5 km/h (4 Bft) 91,49 %
25.12.2017 07:44 8,1 C 7,8 C 6,7 C 90 % 0 lf 1018,0 hPa 0,0 l/m 0 min 0 min 0 W/m 15,8 km/h (3 Bft) 88,89 %
25.12.2017 07:46 8,1 C 7,8 C 6,7 C 90 % 0 lf 1018,1 hPa 0,0 l/m 0 min 0 min 0 W/m 20,3 km/h (4 Bft) 93,75 %
25.12.2017 07:48 8,1 C 7,8 C 6,7 C 90 % 0 lf 1018,2 hPa 0,0 l/m 0 min 0 min 0 W/m 20,3 km/h (4 Bft) 91,67 %
25.12.2017 07:50 8,1 C 8,3 C 6,7 C 90 % 0 lf 1018,0 hPa 0,0 l/m 0 min 0 min 0 W/m 36,0 km/h (5 Bft) 87,23 %
25.12.2017 07:52 8,1 C 8,3 C 6,7 C 90 % 0 lf 1018,0 hPa 0,0 l/m 0 min 0 min 0 W/m 22,5 km/h (4 Bft) 95,65 %
25.12.2017 07:54 8,1 C 7,8 C 6,7 C 89 % 0 lf 1018,0 hPa 0,0 l/m 0 min 0 min 0 W/m 22,5 km/h (4 Bft) 95,74 %
25.12.2017 07:56 8,1 C 8,3 C 6,7 C 89 % 0 lf 1018,1 hPa 0,0 l/m 0 min 0 min 0 W/m 24,8 km/h (4 Bft) 95,74 %
25.12.2017 07:58 8,1 C 8,3 C 6,7 C 89 % 0 lf 1018,0 hPa 0,0 l/m 0 min 0 min 0 W/m 33,8 km/h (5 Bft) 95,83 %
25.12.2017 08:00 8,1 C 8,3 C 6,7 C 89 % 0 lf 1017,9 hPa 0,0 l/m 0 min 0 min 0 W/m 29,3 km/h (5 Bft) 92,00 %
25.12.2017 08:02 8,1 C 8,3 C 6,7 C 89 % 0 lf 1017,9 hPa 0,0 l/m 0 min 0 min 0 W/m 27,0 km/h (4 Bft) 95,92 %
25.12.2017 08:04 8,1 C 8,3 C 6,7 C 89 % 0 lf 1017,9 hPa 0,0 l/m 0 min 0 min 0 W/m 20,3 km/h (4 Bft) 93,62 %
25.12.2017 08:06 8,1 C 7,8 C 6,7 C 89 % 0 lf 1017,9 hPa 0,0 l/m 0 min 0 min 0 W/m 20,3 km/h (4 Bft) 91,67 %
25.12.2017 08:08 8,1 C 7,8 C 6,7 C 89 % 0 lf 1017,8 hPa 0,0 l/m 0 min 0 min 0 W/m 18,0 km/h (3 Bft) 97,92 %
25.12.2017 08:10 8,1 C 7,8 C 6,7 C 89 % 0 lf 1017,8 hPa 0,0 l/m 0 min 0 min 0 W/m 22,5 km/h (4 Bft) 100,00 %
25.12.2017 08:12 8,1 C 7,8 C 6,7 C 89 % 0 lf 1017,8 hPa 0,0 l/m 0 min 0 min 0 W/m 18,0 km/h (3 Bft) 100,00 %
25.12.2017 08:14 8,1 C 7,8 C 6,7 C 89 % 0 lf 1017,8 hPa 0,0 l/m 0 min 0 min 0 W/m 13,5 km/h (3 Bft) 100,00 %
25.12.2017 08:16 8,1 C 7,8 C 6,7 C 89 % 0 lf 1017,8 hPa 0,0 l/m 0 min 0 min 0 W/m 20,3 km/h (4 Bft) 100,00 %
25.12.2017 08:18 8,1 C 7,8 C 6,7 C 89 % 0 lf 1017,8 hPa 0,0 l/m 0 min 0 min 0 W/m 18,0 km/h (3 Bft) 97,92 %
25.12.2017 08:20 8,1 C 7,8 C 6,7 C 89 % 0 lf 1017,8 hPa 0,0 l/m 0 min 0 min 0 W/m 15,8 km/h (3 Bft) 97,92 %
25.12.2017 08:22 8,1 C 7,8 C 6,7 C 89 % 0 lf 1017,7 hPa 0,0 l/m 0 min 0 min 0 W/m 13,5 km/h (3 Bft) 97,92 %
25.12.2017 08:24 8,1 C 7,8 C 6,7 C 89 % 0 lf 1017,8 hPa 0,0 l/m 0 min 0 min 0 W/m 24,8 km/h (4 Bft) 93,62 %
25.12.2017 08:26 8,1 C 7,8 C 6,7 C 89 % 0 lf 1017,7 hPa 0,0 l/m 0 min 0 min 0 W/m 18,0 km/h (3 Bft) 100,00 %
25.12.2017 08:28 8,1 C 7,8 C 6,7 C 89 % 0 lf 1017,7 hPa 0,0 l/m 0 min 0 min 0 W/m 22,5 km/h (4 Bft) 97,87 %
25.12.2017 08:30 8,1 C 7,8 C 6,7 C 89 % 0 lf 1017,7 hPa 0,0 l/m 0 min 0 min 0 W/m 20,3 km/h (4 Bft) 100,00 %
25.12.2017 08:32 8,1 C 7,8 C 6,7 C 89 % 0 lf 1017,6 hPa 0,0 l/m 0 min 0 min 0 W/m 18,0 km/h (3 Bft) 100,00 %
25.12.2017 08:34 8,1 C 7,8 C 6,7 C 89 % 0 lf 1017,7 hPa 0,0 l/m 0 min 0 min 0 W/m 22,5 km/h (4 Bft) 100,00 %
25.12.2017 08:36 8,1 C 7,8 C 6,7 C 89 % 0 lf 1017,7 hPa 0,0 l/m 0 min 0 min 0 W/m 24,8 km/h (4 Bft) 97,92 %
25.12.2017 08:38 8,1 C 7,8 C 6,7 C 89 % 0 lf 1017,6 hPa 0,0 l/m 0 min 0 min 0 W/m 20,3 km/h (4 Bft) 100,00 %
25.12.2017 08:40 8,1 C 7,8 C 6,7 C 89 % 0 lf 1017,6 hPa 0,0 l/m 0 min 0 min 0 W/m 22,5 km/h (4 Bft) 97,92 %
25.12.2017 08:42 8,1 C 7,8 C 6,7 C 89 % 0 lf 1017,6 hPa 0,0 l/m 0 min 0 min 0 W/m 22,5 km/h (4 Bft) 100,00 %
25.12.2017 08:44 8,1 C 7,8 C 6,7 C 89 % 0 lf 1017,6 hPa 0,0 l/m 0 min 0 min 0 W/m 22,5 km/h (4 Bft) 100,00 %
25.12.2017 08:46 8,1 C 7,8 C 6,7 C 89 % 0 lf 1017,6 hPa 0,0 l/m 0 min 0 min 0 W/m 33,8 km/h (5 Bft) 100,00 %
25.12.2017 08:48 8,1 C 7,8 C 6,7 C 89 % 0 lf 1017,5 hPa 0,0 l/m 0 min 0 min 0 W/m 20,3 km/h (4 Bft) 100,00 %
25.12.2017 08:50 8,1 C 7,8 C 6,7 C 89 % 0 lf 1017,5 hPa 0,0 l/m 0 min 0 min 3 W/m 15,8 km/h (3 Bft) 97,92 %
25.12.2017 08:52 8,0 C 7,8 C 6,7 C 89 % 0 lf 1017,4 hPa 0,0 l/m 0 min 0 min 5 W/m 22,5 km/h (4 Bft) 100,00 %
25.12.2017 08:54 8,0 C 7,8 C 6,7 C 89 % 0 lf 1017,5 hPa 0,0 l/m 0 min 0 min 5 W/m 22,5 km/h (4 Bft) 100,00 %
25.12.2017 08:56 8,0 C 7,8 C 6,7 C 89 % 0 lf 1017,5 hPa 0,0 l/m 0 min 0 min 5 W/m 20,3 km/h (4 Bft) 100,00 %
25.12.2017 08:58 8,0 C 7,8 C 6,7 C 90 % 0 lf 1017,5 hPa 0,0 l/m 0 min 0 min 5 W/m 22,5 km/h (4 Bft) 97,92 %
25.12.2017 09:00 8,0 C 7,8 C 6,7 C 90 % 0 lf 1017,4 hPa 0,0 l/m 0 min 0 min 5 W/m 18,0 km/h (3 Bft) 97,96 %
25.12.2017 09:02 8,0 C 7,8 C 6,7 C 90 % 0 lf 1017,4 hPa 0,0 l/m 0 min 0 min 6 W/m 22,5 km/h (4 Bft) 98,00 %
25.12.2017 09:04 8,0 C 7,8 C 6,7 C 90 % 0 lf 1017,4 hPa 0,0 l/m 0 min 0 min 7 W/m 18,0 km/h (3 Bft) 93,62 %
25.12.2017 09:06 7,9 C 7,8 C 6,7 C 90 % 0 lf 1017,4 hPa 0,0 l/m 0 min 0 min 8 W/m 22,5 km/h (4 Bft) 100,00 %
25.12.2017 09:08 7,9 C 7,8 C 6,7 C 90 % 0 lf 1017,5 hPa 0,0 l/m 0 min 0 min 8 W/m 22,5 km/h (4 Bft) 97,87 %
25.12.2017 09:10 7,9 C 7,8 C 6,7 C 90 % 0 lf 1017,4 hPa 0,0 l/m 0 min 0 min 8 W/m 18,0 km/h (3 Bft) 97,87 %
25.12.2017 09:12 7,9 C 7,8 C 6,7 C 90 % 0 lf 1017,4 hPa 0,0 l/m 0 min 0 min 9 W/m 20,3 km/h (4 Bft) 97,83 %
25.12.2017 09:14 7,9 C 7,8 C 6,7 C 90 % 0 lf 1017,4 hPa 0,0 l/m 0 min 0 min 9 W/m 22,5 km/h (4 Bft) 97,87 %
25.12.2017 09:16 7,9 C 7,8 C 6,7 C 90 % 0 lf 1017,5 hPa 0,0 l/m 0 min 0 min 8 W/m 24,8 km/h (4 Bft) 97,87 %
25.12.2017 09:18 7,9 C 7,8 C 6,7 C 90 % 0 lf 1017,4 hPa 0,0 l/m 0 min 0 min 8 W/m 24,8 km/h (4 Bft) 95,74 %
25.12.2017 09:20 7,9 C 7,8 C 6,7 C 90 % 0 lf 1017,5 hPa 0,0 l/m 0 min 0 min 9 W/m 22,5 km/h (4 Bft) 97,87 %
25.12.2017 09:22 7,9 C 7,8 C 6,7 C 90 % 0 lf 1017,5 hPa 0,0 l/m 0 min 0 min 11 W/m 22,5 km/h (4 Bft) 97,87 %
25.12.2017 09:24 7,9 C 7,8 C 6,7 C 90 % 0 lf 1017,4 hPa 0,0 l/m 0 min 0 min 11 W/m 22,5 km/h (4 Bft) 97,87 %
25.12.2017 09:26 7,9 C 7,8 C 6,7 C 90 % 0 lf 1017,4 hPa 0,0 l/m 0 min 0 min 11 W/m 24,8 km/h (4 Bft) 97,87 %
25.12.2017 09:28 7,9 C 7,8 C 6,7 C 90 % 0 lf 1017,4 hPa 0,0 l/m 0 min 0 min 11 W/m 24,8 km/h (4 Bft) 100,00 %
25.12.2017 09:30 7,9 C 7,8 C 6,7 C 90 % 0 lf 1017,4 hPa 0,0 l/m 0 min 0 min 11 W/m 18,0 km/h (3 Bft) 97,87 %
25.12.2017 09:32 7,9 C 7,8 C 6,7 C 90 % 0 lf 1017,5 hPa 0,0 l/m 0 min 0 min 11 W/m 18,0 km/h (3 Bft) 93,62 %
25.12.2017 09:34 7,9 C 7,8 C 6,7 C 90 % 0 lf 1017,5 hPa 0,0 l/m 0 min 0 min 11 W/m 31,5 km/h (5 Bft) 97,83 %
25.12.2017 09:36 7,9 C 7,8 C 6,7 C 90 % 0 lf 1017,4 hPa 0,0 l/m 0 min 0 min 12 W/m 27,0 km/h (4 Bft) 95,74 %
25.12.2017 09:38 7,9 C 7,8 C 6,7 C 90 % 0 lf 1017,4 hPa 0,0 l/m 0 min 0 min 12 W/m 24,8 km/h (4 Bft) 97,87 %
25.12.2017 09:40 7,9 C 7,8 C 6,7 C 90 % 0 lf 1017,4 hPa 0,0 l/m 0 min 0 min 14 W/m 15,8 km/h (3 Bft) 97,87 %
25.12.2017 09:42 7,9 C 7,8 C 6,7 C 90 % 0 lf 1017,3 hPa 0,0 l/m 0 min 0 min 16 W/m 15,8 km/h (3 Bft) 97,87 %
25.12.2017 09:44 7,9 C 7,8 C 6,7 C 90 % 0 lf 1017,3 hPa 0,0 l/m 0 min 0 min 14 W/m 33,8 km/h (5 Bft) 95,74 %
25.12.2017 09:46 7,9 C 7,8 C 6,7 C 90 % 0 lf 1017,4 hPa 0,0 l/m 0 min 0 min 12 W/m 20,3 km/h (4 Bft) 100,00 %
25.12.2017 09:48 7,8 C 7,8 C 6,7 C 90 % 0 lf 1017,3 hPa 0,0 l/m 0 min 0 min 12 W/m 27,0 km/h (4 Bft) 95,74 %
25.12.2017 09:50 7,8 C 7,8 C 6,7 C 90 % 0 lf 1017,3 hPa 0,0 l/m 0 min 0 min 14 W/m 18,0 km/h (3 Bft) 100,00 %
25.12.2017 09:52 7,9 C 7,8 C 6,7 C 90 % 0 lf 1017,3 hPa 0,0 l/m 0 min 0 min 17 W/m 18,0 km/h (3 Bft) 97,87 %
25.12.2017 09:54 7,8 C 7,8 C 6,7 C 90 % 0 lf 1017,3 hPa 0,0 l/m 0 min 0 min 19 W/m 18,0 km/h (3 Bft) 100,00 %
25.12.2017 09:56 7,8 C 7,8 C 6,7 C 90 % 0 lf 1017,3 hPa 0,0 l/m 0 min 0 min 18 W/m 15,8 km/h (3 Bft) 100,00 %
25.12.2017 09:58 7,8 C 7,8 C 6,7 C 90 % 0 lf 1017,4 hPa 0,0 l/m 0 min 0 min 15 W/m 18,0 km/h (3 Bft) 97,83 %
25.12.2017 10:00 7,8 C 7,8 C 6,7 C 90 % 0 lf 1017,3 hPa 0,0 l/m 0 min 0 min 14 W/m 20,3 km/h (4 Bft) 100,00 %
25.12.2017 10:02 7,8 C 7,8 C 6,7 C 90 % 0 lf 1017,4 hPa 0,0 l/m 0 min 0 min 14 W/m 20,3 km/h (4 Bft) 95,74 %
25.12.2017 10:04 7,8 C 7,8 C 6,7 C 90 % 0 lf 1017,4 hPa 0,0 l/m 0 min 0 min 17 W/m 24,8 km/h (4 Bft) 97,87 %
25.12.2017 10:06 7,8 C 7,8 C 6,7 C 90 % 0 lf 1017,4 hPa 0,0 l/m 0 min 0 min 16 W/m 20,3 km/h (4 Bft) 97,87 %
25.12.2017 10:08 7,8 C 7,8 C 6,7 C 90 % 0 lf 1017,4 hPa 0,0 l/m 0 min 0 min 17 W/m 15,8 km/h (3 Bft) 97,87 %
25.12.2017 10:10 7,8 C 7,8 C 6,7 C 90 % 0 lf 1017,4 hPa 0,0 l/m 0 min 0 min 18 W/m 15,8 km/h (3 Bft) 93,48 %
25.12.2017 10:12 7,8 C 7,8 C 6,7 C 90 % 0 lf 1017,4 hPa 0,0 l/m 0 min 0 min 17 W/m 24,8 km/h (4 Bft) 95,74 %
25.12.2017 10:14 7,8 C 7,8 C 6,7 C 90 % 0 lf 1017,5 hPa 0,0 l/m 0 min 0 min 18 W/m 18,0 km/h (3 Bft) 95,74 %
25.12.2017 10:16 7,8 C 7,8 C 6,7 C 90 % 0 lf 1017,4 hPa 0,0 l/m 0 min 0 min 18 W/m 15,8 km/h (3 Bft) 93,62 %
25.12.2017 10:18 7,8 C 7,8 C 6,7 C 90 % 0 lf 1017,5 hPa 0,0 l/m 0 min 0 min 18 W/m 31,5 km/h (5 Bft) 95,74 %
25.12.2017 10:20 7,8 C 7,8 C 6,7 C 90 % 0 lf 1017,4 hPa 0,0 l/m 0 min 0 min 17 W/m 31,5 km/h (5 Bft) 95,74 %
25.12.2017 10:22 7,8 C 7,8 C 6,7 C 90 % 0 lf 1017,5 hPa 0,0 l/m 0 min 0 min 18 W/m 22,5 km/h (4 Bft) 91,89 %
25.12.2017 10:24 7,8 C 7,8 C 6,7 C 90 % 0 lf 1017,5 hPa 0,0 l/m 0 min 0 min 19 W/m 22,5 km/h (4 Bft) 95,65 %
25.12.2017 10:26 7,8 C 7,8 C 6,7 C 90 % 0 lf 1017,5 hPa 0,0 l/m 0 min 0 min 19 W/m 13,5 km/h (3 Bft) 93,62 %
25.12.2017 10:28 7,8 C 7,8 C 6,7 C 90 % 0 lf 1017,5 hPa 0,0 l/m 0 min 0 min 17 W/m 13,5 km/h (3 Bft) 93,62 %
25.12.2017 10:30 7,8 C 7,8 C 6,7 C 90 % 0 lf 1017,5 hPa 0,0 l/m 0 min 0 min 18 W/m 15,8 km/h (3 Bft) 95,74 %
25.12.2017 10:32 7,8 C 7,8 C 6,7 C 90 % 0 lf 1017,5 hPa 0,0 l/m 0 min 0 min 18 W/m 15,8 km/h (3 Bft) 95,74 %
25.12.2017 10:34 7,8 C 7,8 C 6,7 C 90 % 0 lf 1017,5 hPa 0,0 l/m 0 min 0 min 18 W/m 22,5 km/h (4 Bft) 93,62 %
25.12.2017 10:36 7,8 C 7,8 C 6,7 C 90 % 0 lf 1017,5 hPa 0,0 l/m 0 min 0 min 19 W/m 22,5 km/h (4 Bft) 93,48 %
25.12.2017 10:38 7,8 C 7,8 C 6,7 C 90 % 0 lf 1017,5 hPa 0,0 l/m 0 min 0 min 19 W/m 24,8 km/h (4 Bft) 93,62 %
25.12.2017 10:40 7,8 C 7,8 C 6,7 C 90 % 0 lf 1017,5 hPa 0,0 l/m 0 min 0 min 18 W/m 31,5 km/h (5 Bft) 91,49 %
25.12.2017 10:42 7,8 C 7,8 C 6,7 C 90 % 0 lf 1017,4 hPa 0,0 l/m 0 min 0 min 19 W/m 24,8 km/h (4 Bft) 93,75 %
25.12.2017 10:44 7,8 C 7,8 C 6,7 C 90 % 0 lf 1017,4 hPa 0,0 l/m 0 min 0 min 21 W/m 24,8 km/h (4 Bft) 91,67 %
25.12.2017 10:46 7,8 C 7,8 C 6,7 C 90 % 0 lf 1017,4 hPa 0,0 l/m 0 min 0 min 23 W/m 22,5 km/h (4 Bft) 93,48 %
25.12.2017 10:48 7,8 C 7,8 C 6,7 C 90 % 0 lf 1017,4 hPa 0,0 l/m 0 min 0 min 23 W/m 27,0 km/h (4 Bft) 91,49 %
25.12.2017 10:50 7,8 C 7,8 C 6,7 C 90 % 0 lf 1017,3 hPa 0,0 l/m 0 min 0 min 25 W/m 24,8 km/h (4 Bft) 89,36 %
25.12.2017 10:52 7,8 C 7,8 C 6,7 C 90 % 0 lf 1017,4 hPa 0,0 l/m 0 min 0 min 26 W/m 20,3 km/h (4 Bft) 97,87 %
25.12.2017 10:54 7,8 C 7,8 C 6,7 C 90 % 0 lf 1017,4 hPa 0,0 l/m 0 min 0 min 25 W/m 15,8 km/h (3 Bft) 95,74 %
25.12.2017 10:56 7,8 C 7,8 C 6,7 C 89 % 0 lf 1017,4 hPa 0,0 l/m 0 min 0 min 27 W/m 15,8 km/h (3 Bft) 91,49 %
25.12.2017 10:58 7,8 C 7,8 C 6,7 C 89 % 0 lf 1017,4 hPa 0,0 l/m 0 min 0 min 28 W/m 20,3 km/h (4 Bft) 93,48 %
25.12.2017 11:00 7,8 C 7,8 C 6,7 C 89 % 0 lf 1017,3 hPa 0,0 l/m 0 min 0 min 30 W/m 24,8 km/h (4 Bft) 97,87 %
25.12.2017 11:02 7,8 C 7,8 C 7,2 C 89 % 0 lf 1017,3 hPa 0,0 l/m 0 min 0 min 32 W/m 20,3 km/h (4 Bft) 97,87 %
25.12.2017 11:04 7,8 C 7,8 C 7,2 C 89 % 0 lf 1017,3 hPa 0,0 l/m 0 min 0 min 33 W/m 18,0 km/h (3 Bft) 97,87 %
25.12.2017 11:06 7,8 C 7,8 C 7,2 C 89 % 0 lf 1017,3 hPa 0,0 l/m 0 min 0 min 32 W/m 27,0 km/h (4 Bft) 97,87 %
25.12.2017 11:08 7,8 C 7,8 C 7,2 C 89 % 0 lf 1017,2 hPa 0,0 l/m 0 min 0 min 30 W/m 22,5 km/h (4 Bft) 95,74 %
25.12.2017 11:10 7,9 C 7,8 C 7,2 C 89 % 0 lf 1017,2 hPa 0,0 l/m 0 min 0 min 27 W/m 27,0 km/h (4 Bft) 97,83 %
25.12.2017 11:12 7,9 C 7,8 C 7,2 C 88 % 0 lf 1017,1 hPa 0,0 l/m 0 min 0 min 28 W/m 27,0 km/h (4 Bft) 95,74 %
25.12.2017 11:14 7,9 C 7,8 C 7,2 C 88 % 0 lf 1017,1 hPa 0,0 l/m 0 min 0 min 24 W/m 20,3 km/h (4 Bft) 93,62 %
25.12.2017 11:16 7,9 C 7,8 C 7,2 C 88 % 0 lf 1017,1 hPa 0,0 l/m 0 min 0 min 21 W/m 20,3 km/h (4 Bft) 93,62 %
25.12.2017 11:18 7,9 C 7,8 C 7,2 C 88 % 0 lf 1017,1 hPa 0,0 l/m 0 min 0 min 27 W/m 15,8 km/h (3 Bft) 95,74 %
25.12.2017 11:20 7,9 C 7,8 C 7,2 C 88 % 0 lf 1017,0 hPa 0,0 l/m 0 min 0 min 28 W/m 13,5 km/h (3 Bft) 95,74 %
25.12.2017 11:22 7,9 C 7,8 C 6,7 C 88 % 0 lf 1017,0 hPa 0,0 l/m 0 min 0 min 22 W/m 15,8 km/h (3 Bft) 95,65 %
25.12.2017 11:24 7,9 C 7,8 C 6,7 C 88 % 0 lf 1017,0 hPa 0,0 l/m 0 min 0 min 23 W/m 18,0 km/h (3 Bft) 95,74 %
25.12.2017 11:26 7,9 C 7,8 C 6,7 C 88 % 0 lf 1017,0 hPa 0,0 l/m 0 min 0 min 28 W/m 29,3 km/h (5 Bft) 95,74 %
25.12.2017 11:28 7,9 C 7,8 C 6,7 C 88 % 0 lf 1017,0 hPa 0,0 l/m 0 min 0 min 28 W/m 11,3 km/h (2 Bft) 95,74 %
25.12.2017 11:30 7,9 C 7,8 C 6,7 C 88 % 0 lf 1016,9 hPa 0,0 l/m 0 min 0 min 22 W/m 20,3 km/h (4 Bft) 95,74 %
25.12.2017 11:32 7,9 C 7,8 C 6,7 C 88 % 0 lf 1016,9 hPa 0,0 l/m 0 min 0 min 24 W/m 20,3 km/h (4 Bft) 93,75 %
25.12.2017 11:34 7,9 C 7,8 C 6,7 C 88 % 0 lf 1016,9 hPa 0,0 l/m 0 min 0 min 23 W/m 22,5 km/h (4 Bft) 97,83 %
25.12.2017 11:36 7,9 C 7,8 C 6,7 C 88 % 0 lf 1016,9 hPa 0,0 l/m 0 min 0 min 22 W/m 22,5 km/h (4 Bft) 95,74 %
25.12.2017 11:38 7,9 C 7,8 C 6,7 C 88 % 0 lf 1016,9 hPa 0,0 l/m 0 min 0 min 25 W/m 24,8 km/h (4 Bft) 97,87 %
25.12.2017 11:40 7,9 C 7,8 C 6,7 C 88 % 0 lf 1016,9 hPa 0,0 l/m 0 min 0 min 28 W/m 20,3 km/h (4 Bft) 97,87 %
25.12.2017 11:42 7,8 C 7,8 C 6,7 C 88 % 0 lf 1016,7 hPa 0,0 l/m 0 min 0 min 26 W/m 24,8 km/h (4 Bft) 97,87 %
25.12.2017 11:44 7,8 C 7,8 C 6,7 C 88 % 0 lf 1016,7 hPa 0,0 l/m 0 min 0 min 23 W/m 18,0 km/h (3 Bft) 95,74 %
25.12.2017 11:46 7,8 C 7,8 C 6,7 C 87 % 0 lf 1016,7 hPa 0,0 l/m 0 min 0 min 24 W/m 20,3 km/h (4 Bft) 97,83 %
25.12.2017 11:48 7,8 C 7,8 C 6,7 C 87 % 0 lf 1016,6 hPa 0,0 l/m 0 min 0 min 27 W/m 24,8 km/h (4 Bft) 100,00 %
25.12.2017 11:50 7,8 C 7,8 C 6,7 C 87 % 0 lf 1016,6 hPa 0,0 l/m 0 min 0 min 27 W/m 29,3 km/h (5 Bft) 100,00 %
25.12.2017 11:52 7,8 C 7,8 C 6,7 C 87 % 0 lf 1016,5 hPa 0,0 l/m 0 min 0 min 25 W/m 27,0 km/h (4 Bft) 97,14 %
25.12.2017 11:54 7,8 C 7,8 C 6,7 C 87 % 0 lf 1016,5 hPa 0,0 l/m 0 min 0 min 28 W/m 18,0 km/h (3 Bft) 100,00 %
25.12.2017 11:56 7,8 C 7,8 C 6,7 C 87 % 0 lf 1016,5 hPa 0,0 l/m 0 min 0 min 28 W/m 11,3 km/h (2 Bft) 100,00 %
25.12.2017 11:58 7,8 C 7,8 C 6,7 C 87 % 0 lf 1016,5 hPa 0,0 l/m 0 min 0 min 26 W/m 18,0 km/h (3 Bft) 100,00 %
25.12.2017 12:00 7,8 C 7,8 C 6,7 C 87 % 0 lf 1016,5 hPa 0,0 l/m 0 min 0 min 25 W/m 11,3 km/h (2 Bft) 100,00 %
25.12.2017 12:02 7,8 C 7,8 C 6,7 C 87 % 0 lf 1016,4 hPa 0,0 l/m 0 min 0 min 26 W/m 15,8 km/h (3 Bft) 100,00 %
25.12.2017 12:04 7,8 C 7,8 C 6,7 C 87 % 0 lf 1016,4 hPa 0,0 l/m 0 min 0 min 26 W/m 22,5 km/h (4 Bft) 95,74 %
25.12.2017 12:06 7,8 C 7,8 C 6,7 C 87 % 0 lf 1016,4 hPa 0,0 l/m 0 min 0 min 23 W/m 27,0 km/h (4 Bft) 100,00 %
25.12.2017 12:10 7,8 C 7,8 C 6,7 C 87 % 0 lf 1016,3 hPa 0,0 l/m 0 min 0 min 24 W/m 29,3 km/h (5 Bft) 98,97 %
25.12.2017 12:12 7,8 C 7,8 C 6,7 C 86 % 0 lf 1016,3 hPa 0,0 l/m 0 min 0 min 28 W/m 24,8 km/h (4 Bft) 100,00 %
25.12.2017 12:14 7,7 C 7,8 C 6,7 C 86 % 0 lf 1016,2 hPa 0,0 l/m 0 min 0 min 37 W/m 27,0 km/h (4 Bft) 97,87 %
25.12.2017 12:16 7,7 C 7,8 C 6,7 C 86 % 0 lf 1016,2 hPa 0,0 l/m 0 min 0 min 38 W/m 24,8 km/h (4 Bft) 100,00 %
25.12.2017 12:18 7,7 C 7,8 C 6,7 C 86 % 0 lf 1016,2 hPa 0,0 l/m 0 min 0 min 35 W/m 33,8 km/h (5 Bft) 97,83 %
25.12.2017 12:20 7,7 C 7,8 C 6,7 C 86 % 0 lf 1016,1 hPa 0,0 l/m 0 min 0 min 35 W/m 27,0 km/h (4 Bft) 97,87 %
25.12.2017 12:22 7,7 C 7,8 C 6,7 C 86 % 0 lf 1016,1 hPa 0,0 l/m 0 min 0 min 35 W/m 29,3 km/h (5 Bft) 97,87 %
25.12.2017 12:24 7,7 C 7,8 C 6,7 C 86 % 0 lf 1016,0 hPa 0,0 l/m 0 min 0 min 35 W/m 15,8 km/h (3 Bft) 100,00 %
25.12.2017 12:26 7,7 C 7,8 C 6,7 C 86 % 0 lf 1016,0 hPa 0,0 l/m 0 min 0 min 43 W/m 18,0 km/h (3 Bft) 100,00 %
25.12.2017 12:28 7,7 C 7,8 C 6,7 C 86 % 0 lf 1016,0 hPa 0,0 l/m 0 min 0 min 39 W/m 27,0 km/h (4 Bft) 97,87 %
25.12.2017 12:30 7,7 C 7,8 C 6,7 C 86 % 0 lf 1015,9 hPa 0,0 l/m 0 min 0 min 37 W/m 29,3 km/h (5 Bft) 100,00 %
25.12.2017 12:32 7,7 C 7,8 C 6,7 C 86 % 0 lf 1015,9 hPa 0,0 l/m 0 min 0 min 40 W/m 31,5 km/h (5 Bft) 100,00 %
25.12.2017 12:34 7,7 C 7,8 C 6,7 C 86 % 0 lf 1015,8 hPa 0,0 l/m 0 min 0 min 42 W/m 22,5 km/h (4 Bft) 100,00 %
25.12.2017 12:36 7,7 C 7,8 C 6,7 C 85 % 0 lf 1015,8 hPa 0,0 l/m 0 min 0 min 41 W/m 24,8 km/h (4 Bft) 100,00 %
25.12.2017 12:38 7,6 C 7,8 C 6,7 C 85 % 0 lf 1015,9 hPa 0,0 l/m 0 min 0 min 33 W/m 27,0 km/h (4 Bft) 97,87 %
25.12.2017 12:40 7,6 C 7,8 C 6,7 C 85 % 0 lf 1015,9 hPa 0,0 l/m 0 min 0 min 28 W/m 27,0 km/h (4 Bft) 97,87 %
25.12.2017 12:42 7,6 C 7,8 C 6,7 C 85 % 0 lf 1015,9 hPa 0,0 l/m 0 min 0 min 30 W/m 29,3 km/h (5 Bft) 100,00 %
25.12.2017 12:44 7,6 C 7,8 C 6,7 C 85 % 0 lf 1015,8 hPa 0,0 l/m 0 min 0 min 33 W/m 29,3 km/h (5 Bft) 100,00 %
25.12.2017 12:46 7,6 C 7,8 C 6,7 C 85 % 0 lf 1015,9 hPa 0,0 l/m 0 min 0 min 39 W/m 33,8 km/h (5 Bft) 100,00 %
25.12.2017 12:48 7,6 C 7,8 C 6,7 C 85 % 0 lf 1015,8 hPa 0,0 l/m 0 min 0 min 37 W/m 33,8 km/h (5 Bft) 97,87 %
25.12.2017 12:50 7,6 C 7,8 C 6,7 C 85 % 0 lf 1015,8 hPa 0,0 l/m 0 min 0 min 39 W/m 22,5 km/h (4 Bft) 95,74 %
25.12.2017 12:52 7,6 C 7,8 C 6,7 C 85 % 0 lf 1015,7 hPa 0,0 l/m 0 min 0 min 40 W/m 31,5 km/h (5 Bft) 97,96 %
25.12.2017 12:54 7,6 C 7,8 C 6,7 C 84 % 0 lf 1015,7 hPa 0,0 l/m 0 min 0 min 40 W/m 20,3 km/h (4 Bft) 93,48 %
25.12.2017 12:56 7,6 C 7,8 C 6,7 C 84 % 0 lf 1015,6 hPa 0,0 l/m 0 min 0 min 35 W/m 33,8 km/h (5 Bft) 97,87 %
25.12.2017 12:58 7,6 C 7,8 C 6,7 C 84 % 0 lf 1015,6 hPa 0,0 l/m 0 min 0 min 37 W/m 33,8 km/h (5 Bft) 97,87 %
25.12.2017 13:00 7,5 C 7,8 C 6,7 C 84 % 0 lf 1015,6 hPa 0,0 l/m 0 min 0 min 38 W/m 31,5 km/h (5 Bft) 91,49 %
25.12.2017 13:02 7,5 C 7,8 C 6,7 C 84 % 0 lf 1015,6 hPa 0,0 l/m 0 min 0 min 40 W/m 33,8 km/h (5 Bft) 93,62 %
25.12.2017 13:04 7,5 C 7,8 C 6,7 C 84 % 0 lf 1015,5 hPa 0,0 l/m 0 min 0 min 41 W/m 36,0 km/h (5 Bft) 93,62 %
25.12.2017 13:06 7,5 C 7,8 C 6,7 C 84 % 0 lf 1015,4 hPa 0,0 l/m 0 min 0 min 44 W/m 33,8 km/h (5 Bft) 91,30 %
25.12.2017 13:08 7,5 C 7,8 C 6,7 C 84 % 0 lf 1015,3 hPa 0,0 l/m 0 min 0 min 47 W/m 24,8 km/h (4 Bft) 95,74 %
25.12.2017 13:10 7,5 C 7,8 C 6,7 C 84 % 0 lf 1015,3 hPa 0,0 l/m 0 min 0 min 47 W/m 27,0 km/h (4 Bft) 93,62 %
25.12.2017 13:12 7,5 C 7,8 C 6,7 C 84 % 0 lf 1015,3 hPa 0,0 l/m 0 min 0 min 51 W/m 20,3 km/h (4 Bft) 93,62 %
25.12.2017 13:14 7,5 C 7,8 C 6,7 C 84 % 0 lf 1015,2 hPa 0,0 l/m 0 min 0 min 52 W/m 27,0 km/h (4 Bft) 93,62 %
25.12.2017 13:16 7,5 C 7,8 C 6,7 C 84 % 0 lf 1015,2 hPa 0,0 l/m 0 min 0 min 47 W/m 15,8 km/h (3 Bft) 93,48 %
25.12.2017 13:18 7,5 C 7,8 C 6,7 C 84 % 0 lf 1015,1 hPa 0,0 l/m 0 min 0 min 45 W/m 27,0 km/h (4 Bft) 87,23 %
25.12.2017 13:20 7,5 C 7,8 C 6,7 C 84 % 0 lf 1015,0 hPa 0,0 l/m 0 min 0 min 42 W/m 22,5 km/h (4 Bft) 91,49 %
25.12.2017 13:22 7,4 C 7,8 C 6,7 C 84 % 0 lf 1015,0 hPa 0,0 l/m 0 min 0 min 37 W/m 18,0 km/h (3 Bft) 93,62 %
25.12.2017 13:24 7,5 C 7,8 C 6,7 C 84 % 0 lf 1015,0 hPa 0,0 l/m 0 min 0 min 32 W/m 27,0 km/h (4 Bft) 93,62 %
25.12.2017 13:26 7,5 C 7,8 C 6,7 C 84 % 0 lf 1015,0 hPa 0,0 l/m 0 min 0 min 34 W/m 20,3 km/h (4 Bft) 91,49 %
25.12.2017 13:28 7,5 C 7,8 C 6,7 C 84 % 0 lf 1015,0 hPa 0,0 l/m 0 min 0 min 37 W/m 27,0 km/h (4 Bft) 91,30 %
25.12.2017 13:30 7,4 C 7,8 C 6,7 C 84 % 0 lf 1014,9 hPa 0,0 l/m 0 min 0 min 41 W/m 38,3 km/h (5 Bft) 91,49 %
25.12.2017 13:32 7,4 C 7,8 C 6,7 C 84 % 0 lf 1015,0 hPa 0,0 l/m 0 min 0 min 40 W/m 15,8 km/h (3 Bft) 91,49 %
25.12.2017 13:34 7,5 C 7,8 C 6,7 C 84 % 0 lf 1014,9 hPa 0,0 l/m 0 min 0 min 41 W/m 22,5 km/h (4 Bft) 93,62 %
25.12.2017 13:36 7,4 C 7,2 C 6,7 C 84 % 0 lf 1014,8 hPa 0,0 l/m 0 min 0 min 41 W/m 20,3 km/h (4 Bft) 91,49 %
25.12.2017 13:38 7,4 C 7,8 C 6,7 C 84 % 0 lf 1014,7 hPa 0,0 l/m 0 min 0 min 41 W/m 18,0 km/h (3 Bft) 93,62 %
25.12.2017 13:40 7,4 C 7,2 C 6,7 C 84 % 0 lf 1014,6 hPa 0,0 l/m 0 min 0 min 45 W/m 33,8 km/h (5 Bft) 100,00 %
25.12.2017 13:42 7,4 C 7,2 C 6,7 C 84 % 0 lf 1014,6 hPa 0,0 l/m 0 min 0 min 47 W/m 22,5 km/h (4 Bft) 97,87 %
25.12.2017 13:44 7,4 C 7,2 C 6,7 C 84 % 0 lf 1014,6 hPa 0,0 l/m 0 min 0 min 46 W/m 22,5 km/h (4 Bft) 97,87 %
25.12.2017 13:46 7,4 C 7,2 C 6,7 C 84 % 0 lf 1014,6 hPa 0,0 l/m 0 min 0 min 40 W/m 29,3 km/h (5 Bft) 97,87 %
25.12.2017 13:48 7,4 C 7,2 C 6,7 C 84 % 0 lf 1014,6 hPa 0,0 l/m 0 min 0 min 40 W/m 36,0 km/h (5 Bft) 100,00 %
25.12.2017 13:50 7,3 C 7,2 C 6,7 C 84 % 0 lf 1014,5 hPa 0,0 l/m 0 min 0 min 43 W/m 31,5 km/h (5 Bft) 100,00 %
25.12.2017 13:52 7,3 C 7,2 C 6,7 C 84 % 0 lf 1014,6 hPa 0,0 l/m 0 min 0 min 39 W/m 31,5 km/h (5 Bft) 97,83 %
25.12.2017 13:54 7,3 C 7,2 C 6,7 C 84 % 0 lf 1014,5 hPa 0,0 l/m 0 min 0 min 34 W/m 24,8 km/h (4 Bft) 100,00 %
25.12.2017 13:56 7,3 C 7,2 C 6,1 C 84 % 0 lf 1014,5 hPa 0,0 l/m 0 min 0 min 28 W/m 22,5 km/h (4 Bft) 100,00 %
25.12.2017 13:58 7,3 C 7,2 C 6,1 C 84 % 0 lf 1014,5 hPa 0,0 l/m 0 min 0 min 26 W/m 20,3 km/h (4 Bft) 97,87 %
25.12.2017 14:00 7,3 C 7,2 C 6,1 C 84 % 0 lf 1014,5 hPa 0,0 l/m 0 min 0 min 32 W/m 29,3 km/h (5 Bft) 97,87 %
25.12.2017 14:02 7,3 C 7,2 C 6,1 C 84 % 0 lf 1014,4 hPa 0,0 l/m 0 min 0 min 30 W/m 18,0 km/h (3 Bft) 100,00 %
25.12.2017 14:04 7,3 C 7,2 C 6,1 C 84 % 0 lf 1014,4 hPa 0,0 l/m 0 min 0 min 29 W/m 22,5 km/h (4 Bft) 100,00 %
25.12.2017 14:06 7,3 C 7,2 C 6,1 C 84 % 0 lf 1014,3 hPa 0,0 l/m 0 min 0 min 31 W/m 29,3 km/h (5 Bft) 93,62 %
25.12.2017 14:08 7,3 C 7,2 C 6,1 C 84 % 0 lf 1014,3 hPa 0,0 l/m 0 min 0 min 34 W/m 24,8 km/h (4 Bft) 100,00 %
25.12.2017 14:10 7,3 C 7,2 C 6,1 C 84 % 0 lf 1014,2 hPa 0,0 l/m 0 min 0 min 34 W/m 13,5 km/h (3 Bft) 100,00 %
25.12.2017 14:12 7,3 C 7,2 C 6,1 C 84 % 0 lf 1014,2 hPa 0,0 l/m 0 min 0 min 33 W/m 24,8 km/h (4 Bft) 97,87 %
25.12.2017 14:14 7,2 C 7,2 C 6,1 C 84 % 0 lf 1014,3 hPa 0,0 l/m 0 min 0 min 33 W/m 13,5 km/h (3 Bft) 97,87 %
25.12.2017 14:16 7,2 C 7,2 C 6,1 C 84 % 0 lf 1014,2 hPa 0,0 l/m 0 min 0 min 33 W/m 20,3 km/h (4 Bft) 95,65 %
25.12.2017 14:18 7,2 C 7,2 C 6,1 C 84 % 0 lf 1014,1 hPa 0,0 l/m 0 min 0 min 33 W/m 27,0 km/h (4 Bft) 97,87 %
25.12.2017 14:20 7,2 C 7,2 C 6,1 C 84 % 0 lf 1014,1 hPa 0,0 l/m 0 min 0 min 32 W/m 24,8 km/h (4 Bft) 95,74 %
25.12.2017 14:22 7,2 C 7,2 C 6,1 C 84 % 0 lf 1014,1 hPa 0,0 l/m 0 min 0 min 27 W/m 20,3 km/h (4 Bft) 95,74 %
25.12.2017 14:24 7,2 C 7,2 C 6,1 C 84 % 0 lf 1014,1 hPa 0,0 l/m 0 min 0 min 20 W/m 20,3 km/h (4 Bft) 97,87 %
25.12.2017 14:26 7,2 C 7,2 C 6,1 C 84 % 0 lf 1014,1 hPa 0,0 l/m 0 min 0 min 23 W/m 33,8 km/h (5 Bft) 97,87 %
25.12.2017 14:28 7,2 C 7,2 C 6,1 C 84 % 0 lf 1014,1 hPa 0,0 l/m 0 min 0 min 26 W/m 20,3 km/h (4 Bft) 95,65 %
25.12.2017 14:30 7,2 C 7,2 C 6,1 C 84 % 0 lf 1014,1 hPa 0,0 l/m 0 min 0 min 24 W/m 27,0 km/h (4 Bft) 97,87 %
25.12.2017 14:32 7,2 C 7,2 C 6,1 C 84 % 0 lf 1014,1 hPa 0,0 l/m 0 min 0 min 23 W/m 27,0 km/h (4 Bft) 97,87 %
25.12.2017 14:34 7,2 C 7,2 C 6,1 C 84 % 0 lf 1014,0 hPa 0,0 l/m 0 min 0 min 25 W/m 20,3 km/h (4 Bft) 95,74 %
25.12.2017 14:36 7,2 C 7,2 C 6,1 C 84 % 0 lf 1013,9 hPa 0,0 l/m 0 min 0 min 29 W/m 27,0 km/h (4 Bft) 97,87 %
25.12.2017 14:38 7,2 C 7,2 C 6,1 C 84 % 0 lf 1013,9 hPa 0,0 l/m 0 min 0 min 28 W/m 18,0 km/h (3 Bft) 97,83 %
25.12.2017 14:40 7,1 C 7,2 C 6,1 C 84 % 0 lf 1013,8 hPa 0,0 l/m 0 min 0 min 29 W/m 18,0 km/h (3 Bft) 97,87 %
25.12.2017 14:42 7,1 C 7,2 C 6,1 C 84 % 0 lf 1013,9 hPa 0,0 l/m 0 min 0 min 28 W/m 13,5 km/h (3 Bft) 97,87 %
25.12.2017 14:44 7,1 C 7,2 C 6,1 C 84 % 0 lf 1013,8 hPa 0,0 l/m 0 min 0 min 26 W/m 13,5 km/h (3 Bft) 95,74 %
25.12.2017 14:46 7,1 C 7,2 C 6,1 C 84 % 0 lf 1013,8 hPa 0,0 l/m 0 min 0 min 26 W/m 22,5 km/h (4 Bft) 97,87 %
25.12.2017 14:48 7,1 C 7,2 C 6,1 C 84 % 0 lf 1013,7 hPa 0,0 l/m 0 min 0 min 28 W/m 24,8 km/h (4 Bft) 97,87 %
25.12.2017 14:50 7,1 C 7,2 C 6,1 C 84 % 0 lf 1013,7 hPa 0,0 l/m 0 min 0 min 26 W/m 22,5 km/h (4 Bft) 95,65 %
25.12.2017 14:52 7,1 C 7,2 C 6,1 C 84 % 0 lf 1013,7 hPa 0,0 l/m 0 min 0 min 27 W/m 22,5 km/h (4 Bft) 95,74 %
25.12.2017 14:54 7,1 C 7,2 C 6,1 C 84 % 0 lf 1013,8 hPa 0,0 l/m 0 min 0 min 27 W/m 24,8 km/h (4 Bft) 97,87 %
25.12.2017 14:56 7,1 C 7,2 C 6,1 C 84 % 0 lf 1013,8 hPa 0,0 l/m 0 min 0 min 27 W/m 20,3 km/h (4 Bft) 93,62 %
25.12.2017 14:58 7,1 C 7,2 C 6,1 C 84 % 0 lf 1013,8 hPa 0,0 l/m 0 min 0 min 25 W/m 27,0 km/h (4 Bft) 95,74 %
25.12.2017 15:00 7,0 C 6,7 C 6,1 C 84 % 0 lf 1013,8 hPa 0,0 l/m 0 min 0 min 25 W/m 36,0 km/h (5 Bft) 97,87 %
25.12.2017 15:02 7,0 C 6,7 C 6,1 C 84 % 0 lf 1013,7 hPa 0,0 l/m 0 min 0 min 25 W/m 29,3 km/h (5 Bft) 95,65 %
25.12.2017 15:04 6,9 C 6,7 C 6,1 C 84 % 0 lf 1013,7 hPa 0,0 l/m 0 min 0 min 25 W/m 15,8 km/h (3 Bft) 93,62 %
25.12.2017 15:06 6,9 C 6,7 C 5,6 C 84 % 0 lf 1013,7 hPa 0,0 l/m 0 min 0 min 25 W/m 15,8 km/h (3 Bft) 93,62 %
25.12.2017 15:08 6,9 C 6,7 C 5,6 C 84 % 0 lf 1013,8 hPa 0,0 l/m 0 min 0 min 25 W/m 22,5 km/h (4 Bft) 95,74 %
25.12.2017 15:10 6,9 C 6,7 C 5,6 C 84 % 0 lf 1013,8 hPa 0,0 l/m 0 min 0 min 22 W/m 20,3 km/h (4 Bft) 95,74 %
25.12.2017 15:12 6,8 C 6,7 C 5,6 C 84 % 0 lf 1013,7 hPa 0,0 l/m 0 min 0 min 20 W/m 24,8 km/h (4 Bft) 91,49 %
25.12.2017 15:14 6,8 C 6,7 C 5,6 C 84 % 0 lf 1013,8 hPa 0,0 l/m 0 min 0 min 19 W/m 29,3 km/h (5 Bft) 97,83 %
25.12.2017 15:16 6,8 C 6,7 C 5,6 C 84 % 0 lf 1013,7 hPa 0,0 l/m 0 min 0 min 15 W/m 20,3 km/h (4 Bft) 97,87 %
25.12.2017 15:18 6,8 C 6,7 C 5,6 C 84 % 0 lf 1013,8 hPa 0,0 l/m 0 min 0 min 14 W/m 24,8 km/h (4 Bft) 97,87 %
25.12.2017 15:20 6,7 C 6,7 C 5,6 C 84 % 0 lf 1013,7 hPa 0,0 l/m 0 min 0 min 14 W/m 24,8 km/h (4 Bft) 95,74 %
25.12.2017 15:22 6,7 C 6,7 C 5,6 C 83 % 0 lf 1013,7 hPa 0,0 l/m 0 min 0 min 13 W/m 42,8 km/h (6 Bft) 95,74 %
25.12.2017 15:24 6,6 C 6,7 C 5,6 C 83 % 0 lf 1013,7 hPa 0,0 l/m 0 min 0 min 12 W/m 24,8 km/h (4 Bft) 97,87 %
25.12.2017 15:26 6,6 C 6,7 C 5,6 C 83 % 0 lf 1013,5 hPa 0,0 l/m 0 min 0 min 10 W/m 20,3 km/h (4 Bft) 95,65 %
25.12.2017 15:28 6,6 C 6,1 C 5,6 C 83 % 0 lf 1013,6 hPa 0,0 l/m 0 min 0 min 9 W/m 27,0 km/h (4 Bft) 93,62 %
25.12.2017 15:30 6,6 C 6,1 C 5,6 C 83 % 0 lf 1013,6 hPa 0,0 l/m 0 min 0 min 9 W/m 29,3 km/h (5 Bft) 97,87 %
25.12.2017 15:32 6,5 C 6,1 C 5,6 C 83 % 0 lf 1013,6 hPa 0,0 l/m 0 min 0 min 9 W/m 33,8 km/h (5 Bft) 97,87 %
25.12.2017 15:34 6,5 C 6,1 C 5,6 C 83 % 0 lf 1013,6 hPa 0,0 l/m 0 min 0 min 9 W/m 38,3 km/h (5 Bft) 95,74 %
25.12.2017 15:36 6,4 C 6,1 C 5,6 C 83 % 0 lf 1013,5 hPa 0,0 l/m 0 min 0 min 12 W/m 24,8 km/h (4 Bft) 100,00 %
25.12.2017 15:38 6,4 C 6,1 C 5,0 C 83 % 0 lf 1013,5 hPa 0,0 l/m 0 min 0 min 12 W/m 27,0 km/h (4 Bft) 100,00 %
25.12.2017 15:40 6,4 C 6,1 C 5,0 C 83 % 0 lf 1013,5 hPa 0,0 l/m 0 min 0 min 11 W/m 24,8 km/h (4 Bft) 95,74 %
25.12.2017 15:42 6,4 C 6,1 C 5,0 C 83 % 0 lf 1013,5 hPa 0,0 l/m 0 min 0 min 12 W/m 27,0 km/h (4 Bft) 97,87 %
25.12.2017 15:44 6,4 C 6,1 C 5,0 C 83 % 0 lf 1013,5 hPa 0,0 l/m 0 min 0 min 12 W/m 20,3 km/h (4 Bft) 97,87 %
25.12.2017 15:46 6,4 C 6,1 C 5,0 C 83 % 0 lf 1013,4 hPa 0,0 l/m 0 min 0 min 12 W/m 22,5 km/h (4 Bft) 95,74 %
25.12.2017 15:48 6,4 C 6,1 C 5,0 C 83 % 0 lf 1013,4 hPa 0,0 l/m 0 min 0 min 11 W/m 31,5 km/h (5 Bft) 91,30 %
25.12.2017 15:50 6,3 C 6,1 C 5,0 C 83 % 0 lf 1013,4 hPa 0,0 l/m 0 min 0 min 12 W/m 31,5 km/h (5 Bft) 95,74 %
25.12.2017 15:52 6,3 C 6,1 C 5,0 C 83 % 0 lf 1013,4 hPa 0,0 l/m 0 min 0 min 12 W/m 27,0 km/h (4 Bft) 93,62 %
25.12.2017 15:54 6,3 C 6,1 C 5,0 C 83 % 0 lf 1013,4 hPa 0,0 l/m 0 min 0 min 12 W/m 27,0 km/h (4 Bft) 93,62 %
25.12.2017 15:56 6,3 C 6,1 C 5,0 C 83 % 0 lf 1013,3 hPa 0,0 l/m 0 min 0 min 12 W/m 24,8 km/h (4 Bft) 95,74 %
25.12.2017 15:58 6,3 C 6,1 C 5,0 C 83 % 0 lf 1013,3 hPa 0,0 l/m 0 min 0 min 12 W/m 24,8 km/h (4 Bft) 95,74 %
25.12.2017 16:00 6,2 C 6,1 C 5,0 C 83 % 0 lf 1013,3 hPa 0,0 l/m 0 min 0 min 12 W/m 29,3 km/h (5 Bft) 93,48 %
25.12.2017 16:02 6,2 C 6,1 C 5,0 C 83 % 0 lf 1013,4 hPa 0,0 l/m 0 min 0 min 11 W/m 29,3 km/h (5 Bft) 95,74 %
25.12.2017 16:04 6,2 C 6,1 C 5,0 C 83 % 0 lf 1013,3 hPa 0,0 l/m 0 min 0 min 11 W/m 15,8 km/h (3 Bft) 97,87 %
25.12.2017 16:06 6,2 C 6,1 C 5,0 C 83 % 0 lf 1013,3 hPa 0,0 l/m 0 min 0 min 11 W/m 27,0 km/h (4 Bft) 95,74 %
25.12.2017 16:08 6,2 C 6,1 C 5,0 C 83 % 0 lf 1013,4 hPa 0,0 l/m 0 min 0 min 11 W/m 33,8 km/h (5 Bft) 95,74 %
25.12.2017 16:10 6,1 C 6,1 C 5,0 C 83 % 0 lf 1013,3 hPa 0,0 l/m 0 min 0 min 11 W/m 29,3 km/h (5 Bft) 91,49 %
25.12.2017 16:12 6,1 C 6,1 C 5,0 C 83 % 0 lf 1013,3 hPa 0,0 l/m 0 min 0 min 10 W/m 27,0 km/h (4 Bft) 93,48 %
25.12.2017 16:14 6,1 C 6,1 C 5,0 C 83 % 0 lf 1013,3 hPa 0,0 l/m 0 min 0 min 7 W/m 15,8 km/h (3 Bft) 95,74 %
25.12.2017 16:16 6,1 C 6,1 C 5,0 C 83 % 0 lf 1013,3 hPa 0,0 l/m 0 min 0 min 7 W/m 22,5 km/h (4 Bft) 95,74 %
25.12.2017 16:18 6,1 C 6,1 C 5,0 C 83 % 0 lf 1013,2 hPa 0,0 l/m 0 min 0 min 5 W/m 20,3 km/h (4 Bft) 93,62 %
25.12.2017 16:20 6,1 C 6,1 C 5,0 C 83 % 0 lf 1013,2 hPa 0,0 l/m 0 min 0 min 5 W/m 22,5 km/h (4 Bft) 95,74 %
25.12.2017 16:22 6,1 C 6,1 C 5,0 C 83 % 0 lf 1013,1 hPa 0,0 l/m 0 min 0 min 5 W/m 22,5 km/h (4 Bft) 91,49 %
25.12.2017 16:24 6,0 C 6,1 C 5,0 C 83 % 0 lf 1013,2 hPa 0,0 l/m 0 min 0 min 3 W/m 27,0 km/h (4 Bft) 95,65 %
25.12.2017 16:26 6,0 C 5,6 C 5,0 C 83 % 0 lf 1013,1 hPa 0,0 l/m 0 min 0 min 0 W/m 18,0 km/h (3 Bft) 93,62 %
25.12.2017 16:28 6,0 C 5,6 C 5,0 C 83 % 0 lf 1013,2 hPa 0,0 l/m 0 min 0 min 0 W/m 13,5 km/h (3 Bft) 95,74 %
25.12.2017 16:30 6,0 C 5,6 C 5,0 C 84 % 0 lf 1013,1 hPa 0,0 l/m 0 min 0 min 0 W/m 18,0 km/h (3 Bft) 93,62 %
25.12.2017 16:32 5,9 C 5,6 C 5,0 C 84 % 0 lf 1013,1 hPa 0,0 l/m 0 min 0 min 0 W/m 22,5 km/h (4 Bft) 95,74 %
25.12.2017 16:34 5,9 C 5,6 C 5,0 C 84 % 0 lf 1013,1 hPa 0,0 l/m 0 min 0 min 0 W/m 22,5 km/h (4 Bft) 97,87 %
25.12.2017 16:36 5,9 C 5,6 C 5,0 C 84 % 0 lf 1013,1 hPa 0,0 l/m 0 min 0 min 0 W/m 15,8 km/h (3 Bft) 95,65 %
25.12.2017 16:38 5,9 C 5,6 C 5,0 C 84 % 0 lf 1013,0 hPa 0,0 l/m 0 min 0 min 0 W/m 22,5 km/h (4 Bft) 100,00 %
25.12.2017 16:40 5,9 C 5,6 C 5,0 C 84 % 0 lf 1013,0 hPa 0,0 l/m 0 min 0 min 0 W/m 20,3 km/h (4 Bft) 100,00 %
25.12.2017 16:42 5,9 C 5,6 C 4,4 C 84 % 0 lf 1013,0 hPa 0,0 l/m 0 min 0 min 0 W/m 15,8 km/h (3 Bft) 100,00 %
25.12.2017 16:44 5,9 C 5,6 C 4,4 C 84 % 0 lf 1013,0 hPa 0,0 l/m 0 min 0 min 0 W/m 27,0 km/h (4 Bft) 100,00 %
25.12.2017 16:46 5,9 C 5,6 C 4,4 C 84 % 0 lf 1013,0 hPa 0,0 l/m 0 min 0 min 0 W/m 33,8 km/h (5 Bft) 97,83 %
25.12.2017 16:48 5,9 C 5,6 C 4,4 C 84 % 0 lf 1013,0 hPa 0,0 l/m 0 min 0 min 0 W/m 27,0 km/h (4 Bft) 97,87 %
25.12.2017 16:50 5,8 C 5,6 C 4,4 C 84 % 0 lf 1013,0 hPa 0,0 l/m 0 min 0 min 0 W/m 27,0 km/h (4 Bft) 100,00 %
25.12.2017 16:52 5,8 C 5,6 C 4,4 C 84 % 0 lf 1013,0 hPa 0,0 l/m 0 min 0 min 0 W/m 31,5 km/h (5 Bft) 97,87 %
25.12.2017 16:54 5,8 C 5,6 C 4,4 C 84 % 0 lf 1012,9 hPa 0,0 l/m 0 min 0 min 0 W/m 20,3 km/h (4 Bft) 95,74 %
25.12.2017 16:56 5,8 C 5,6 C 4,4 C 84 % 0 lf 1013,0 hPa 0,0 l/m 0 min 0 min 0 W/m 22,5 km/h (4 Bft) 100,00 %
25.12.2017 16:58 5,8 C 5,6 C 4,4 C 84 % 0 lf 1012,9 hPa 0,0 l/m 0 min 0 min 0 W/m 22,5 km/h (4 Bft) 100,00 %
25.12.2017 17:00 5,7 C 5,6 C 4,4 C 84 % 0 lf 1012,9 hPa 0,0 l/m 0 min 0 min 0 W/m 24,8 km/h (4 Bft) 97,87 %
25.12.2017 17:02 5,7 C 5,6 C 4,4 C 84 % 0 lf 1012,9 hPa 0,0 l/m 0 min 0 min 0 W/m 22,5 km/h (4 Bft) 97,87 %
25.12.2017 17:04 5,7 C 5,6 C 4,4 C 84 % 0 lf 1012,9 hPa 0,0 l/m 0 min 0 min 0 W/m 27,0 km/h (4 Bft) 97,87 %
25.12.2017 17:06 5,7 C 5,6 C 4,4 C 84 % 0 lf 1012,8 hPa 0,0 l/m 0 min 0 min 0 W/m 29,3 km/h (5 Bft) 95,74 %
25.12.2017 17:08 5,7 C 5,6 C 4,4 C 84 % 0 lf 1012,8 hPa 0,0 l/m 0 min 0 min 0 W/m 33,8 km/h (5 Bft) 97,87 %
25.12.2017 17:10 5,7 C 5,6 C 4,4 C 84 % 0 lf 1012,8 hPa 0,0 l/m 0 min 0 min 0 W/m 20,3 km/h (4 Bft) 95,65 %
25.12.2017 17:12 5,7 C 5,6 C 4,4 C 84 % 0 lf 1012,7 hPa 0,0 l/m 0 min 0 min 0 W/m 36,0 km/h (5 Bft) 95,74 %
25.12.2017 17:14 5,6 C 5,6 C 4,4 C 84 % 0 lf 1012,7 hPa 0,0 l/m 0 min 0 min 0 W/m 27,0 km/h (4 Bft) 97,87 %
25.12.2017 17:16 5,6 C 5,6 C 4,4 C 84 % 0 lf 1012,6 hPa 0,0 l/m 0 min 0 min 0 W/m 18,0 km/h (3 Bft) 97,87 %
25.12.2017 17:18 5,6 C 5,6 C 4,4 C 84 % 0 lf 1012,6 hPa 0,0 l/m 0 min 0 min 0 W/m 36,0 km/h (5 Bft) 97,87 %
25.12.2017 17:20 5,6 C 5,6 C 4,4 C 84 % 0 lf 1012,6 hPa 0,0 l/m 0 min 0 min 0 W/m 24,8 km/h (4 Bft) 95,74 %
25.12.2017 17:22 5,6 C 5,6 C 4,4 C 84 % 0 lf 1012,5 hPa 0,0 l/m 0 min 0 min 0 W/m 20,3 km/h (4 Bft) 95,65 %
25.12.2017 17:24 5,6 C 5,6 C 4,4 C 84 % 0 lf 1012,5 hPa 0,0 l/m 0 min 0 min 0 W/m 31,5 km/h (5 Bft) 97,87 %
25.12.2017 17:26 5,6 C 5,6 C 4,4 C 84 % 0 lf 1012,5 hPa 0,0 l/m 0 min 0 min 0 W/m 22,5 km/h (4 Bft) 97,87 %
25.12.2017 17:28 5,5 C 5,6 C 4,4 C 84 % 0 lf 1012,4 hPa 0,0 l/m 0 min 0 min 0 W/m 36,0 km/h (5 Bft) 93,62 %
25.12.2017 17:30 5,5 C 5,6 C 4,4 C 84 % 0 lf 1012,4 hPa 0,0 l/m 0 min 0 min 0 W/m 31,5 km/h (5 Bft) 100,00 %
25.12.2017 17:32 5,5 C 5,6 C 4,4 C 84 % 0 lf 1012,3 hPa 0,0 l/m 0 min 0 min 0 W/m 31,5 km/h (5 Bft) 100,00 %
25.12.2017 17:34 5,5 C 5,6 C 4,4 C 84 % 0 lf 1012,2 hPa 0,0 l/m 0 min 0 min 0 W/m 22,5 km/h (4 Bft) 100,00 %
25.12.2017 17:36 5,4 C 5,6 C 4,4 C 84 % 0 lf 1012,2 hPa 0,0 l/m 0 min 0 min 0 W/m 27,0 km/h (4 Bft) 95,74 %
25.12.2017 17:38 5,4 C 5,6 C 4,4 C 84 % 0 lf 1012,3 hPa 0,0 l/m 0 min 0 min 0 W/m 31,5 km/h (5 Bft) 100,00 %
25.12.2017 17:40 5,4 C 5,6 C 4,4 C 84 % 0 lf 1012,2 hPa 0,0 l/m 0 min 0 min 0 W/m 22,5 km/h (4 Bft) 100,00 %
25.12.2017 17:42 5,4 C 5,6 C 4,4 C 84 % 0 lf 1012,2 hPa 0,0 l/m 0 min 0 min 0 W/m 33,8 km/h (5 Bft) 100,00 %
25.12.2017 17:44 5,4 C 5,0 C 4,4 C 84 % 0 lf 1012,2 hPa 0,0 l/m 0 min 0 min 0 W/m 33,8 km/h (5 Bft) 93,62 %
25.12.2017 17:46 5,4 C 5,0 C 4,4 C 84 % 0 lf 1012,2 hPa 0,0 l/m 0 min 0 min 0 W/m 31,5 km/h (5 Bft) 100,00 %
25.12.2017 17:48 5,4 C 5,0 C 4,4 C 84 % 0 lf 1012,1 hPa 0,0 l/m 0 min 0 min 0 W/m 20,3 km/h (4 Bft) 100,00 %
25.12.2017 17:50 5,4 C 5,0 C 4,4 C 84 % 0 lf 1012,1 hPa 0,0 l/m 0 min 0 min 0 W/m 27,0 km/h (4 Bft) 100,00 %
25.12.2017 17:52 5,3 C 5,0 C 4,4 C 84 % 0 lf 1012,0 hPa 0,0 l/m 0 min 0 min 0 W/m 27,0 km/h (4 Bft) 100,00 %
25.12.2017 17:54 5,3 C 5,0 C 4,4 C 84 % 0 lf 1012,0 hPa 0,0 l/m 0 min 0 min 0 W/m 15,8 km/h (3 Bft) 100,00 %
25.12.2017 17:56 5,3 C 5,0 C 4,4 C 84 % 0 lf 1012,0 hPa 0,0 l/m 0 min 0 min 0 W/m 27,0 km/h (4 Bft) 100,00 %
25.12.2017 17:58 5,3 C 5,0 C 4,4 C 84 % 0 lf 1011,8 hPa 0,0 l/m 0 min 0 min 0 W/m 24,8 km/h (4 Bft) 100,00 %
25.12.2017 18:00 5,3 C 5,0 C 4,4 C 84 % 0 lf 1011,6 hPa 0,0 l/m 0 min 0 min 0 W/m 27,0 km/h (4 Bft) 97,87 %
25.12.2017 18:02 5,3 C 5,0 C 4,4 C 84 % 0 lf 1011,6 hPa 0,0 l/m 0 min 0 min 0 W/m 27,0 km/h (4 Bft) 97,87 %
25.12.2017 18:04 5,3 C 5,0 C 4,4 C 84 % 0 lf 1011,3 hPa 0,0 l/m 0 min 0 min 0 W/m 24,8 km/h (4 Bft) 97,87 %
25.12.2017 18:06 5,3 C 5,0 C 4,4 C 84 % 0 lf 1011,4 hPa 0,0 l/m 0 min 0 min 0 W/m 27,0 km/h (4 Bft) 97,87 %
25.12.2017 18:10 5,3 C 5,0 C 4,4 C 84 % 0 lf 1011,3 hPa 0,0 l/m 0 min 0 min 0 W/m 24,8 km/h (4 Bft) 96,77 %
25.12.2017 18:12 5,3 C 5,6 C 4,4 C 84 % 0 lf 1011,4 hPa 0,0 l/m 0 min 0 min 0 W/m 15,8 km/h (3 Bft) 97,87 %
25.12.2017 18:14 5,3 C 5,6 C 4,4 C 84 % 0 lf 1011,4 hPa 0,0 l/m 0 min 0 min 0 W/m 27,0 km/h (4 Bft) 97,87 %
25.12.2017 18:16 5,3 C 5,6 C 4,4 C 84 % 0 lf 1011,4 hPa 0,0 l/m 0 min 0 min 0 W/m 20,3 km/h (4 Bft) 95,74 %
25.12.2017 18:18 5,3 C 5,6 C 4,4 C 84 % 0 lf 1011,3 hPa 0,0 l/m 0 min 0 min 0 W/m 18,0 km/h (3 Bft) 93,62 %
25.12.2017 18:20 5,3 C 5,6 C 4,4 C 84 % 0 lf 1011,3 hPa 0,0 l/m 0 min 0 min 0 W/m 24,8 km/h (4 Bft) 93,48 %
25.12.2017 18:22 5,4 C 5,6 C 4,4 C 85 % 0 lf 1011,2 hPa 0,0 l/m 0 min 0 min 0 W/m 11,3 km/h (2 Bft) 93,62 %
25.12.2017 18:24 5,4 C 5,6 C 4,4 C 85 % 0 lf 1011,2 hPa 0,0 l/m 0 min 0 min 0 W/m 13,5 km/h (3 Bft) 95,74 %
25.12.2017 18:26 5,4 C 5,6 C 4,4 C 85 % 0 lf 1011,2 hPa 0,0 l/m 0 min 0 min 0 W/m 22,5 km/h (4 Bft) 95,74 %
25.12.2017 18:28 5,4 C 5,6 C 4,4 C 85 % 0 lf 1011,1 hPa 0,0 l/m 0 min 0 min 0 W/m 18,0 km/h (3 Bft) 93,62 %
25.12.2017 18:30 5,4 C 5,6 C 4,4 C 85 % 0 lf 1011,1 hPa 0,0 l/m 0 min 0 min 0 W/m 27,0 km/h (4 Bft) 95,74 %
25.12.2017 18:32 5,4 C 5,6 C 4,4 C 85 % 0 lf 1011,0 hPa 0,0 l/m 0 min 0 min 0 W/m 27,0 km/h (4 Bft) 93,48 %
25.12.2017 18:34 5,4 C 5,6 C 4,4 C 85 % 0 lf 1010,9 hPa 0,0 l/m 0 min 0 min 0 W/m 24,8 km/h (4 Bft) 95,74 %
25.12.2017 18:36 5,4 C 5,6 C 4,4 C 85 % 0 lf 1010,9 hPa 0,0 l/m 0 min 0 min 0 W/m 33,8 km/h (5 Bft) 91,49 %
25.12.2017 18:38 5,4 C 5,0 C 4,4 C 85 % 0 lf 1010,8 hPa 0,0 l/m 0 min 0 min 0 W/m 22,5 km/h (4 Bft) 95,74 %
25.12.2017 18:40 5,3 C 5,6 C 4,4 C 85 % 0 lf 1010,7 hPa 0,0 l/m 0 min 0 min 0 W/m 33,8 km/h (5 Bft) 97,87 %
25.12.2017 18:42 5,3 C 5,0 C 4,4 C 85 % 0 lf 1010,7 hPa 0,0 l/m 0 min 0 min 0 W/m 27,0 km/h (4 Bft) 91,49 %
25.12.2017 18:44 5,3 C 5,0 C 4,4 C 85 % 0 lf 1010,7 hPa 0,0 l/m 0 min 0 min 0 W/m 36,0 km/h (5 Bft) 93,48 %
25.12.2017 18:46 5,3 C 5,0 C 4,4 C 85 % 0 lf 1010,8 hPa 0,0 l/m 0 min 0 min 0 W/m 27,0 km/h (4 Bft) 93,62 %
25.12.2017 18:48 5,3 C 5,0 C 4,4 C 85 % 0 lf 1010,7 hPa 0,0 l/m 0 min 0 min 0 W/m 27,0 km/h (4 Bft) 89,36 %
25.12.2017 18:50 5,3 C 5,0 C 4,4 C 85 % 0 lf 1010,7 hPa 0,0 l/m 0 min 0 min 0 W/m 27,0 km/h (4 Bft) 93,62 %
25.12.2017 18:52 5,3 C 5,0 C 4,4 C 84 % 0 lf 1010,6 hPa 0,0 l/m 0 min 0 min 0 W/m 38,3 km/h (5 Bft) 91,49 %
25.12.2017 18:54 5,3 C 5,0 C 4,4 C 84 % 0 lf 1010,6 hPa 0,0 l/m 0 min 0 min 0 W/m 38,3 km/h (5 Bft) 91,49 %
25.12.2017 18:56 5,3 C 5,0 C 4,4 C 84 % 0 lf 1010,6 hPa 0,0 l/m 0 min 0 min 0 W/m 40,6 km/h (6 Bft) 91,30 %
25.12.2017 18:58 5,3 C 5,0 C 4,4 C 84 % 0 lf 1010,6 hPa 0,0 l/m 0 min 0 min 0 W/m 20,3 km/h (4 Bft) 89,36 %
25.12.2017 19:00 5,3 C 5,0 C 4,4 C 84 % 0 lf 1010,6 hPa 0,0 l/m 0 min 0 min 0 W/m 29,3 km/h (5 Bft) 87,23 %
25.12.2017 19:02 5,3 C 5,0 C 4,4 C 84 % 0 lf 1010,5 hPa 0,0 l/m 0 min 0 min 0 W/m 40,6 km/h (6 Bft) 91,49 %
25.12.2017 19:04 5,3 C 5,0 C 4,4 C 84 % 0 lf 1010,5 hPa 0,0 l/m 0 min 0 min 0 W/m 31,5 km/h (5 Bft) 87,23 %
25.12.2017 19:06 5,3 C 5,0 C 4,4 C 84 % 0 lf 1010,5 hPa 0,0 l/m 0 min 0 min 0 W/m 31,5 km/h (5 Bft) 93,62 %
25.12.2017 19:08 5,3 C 5,0 C 4,4 C 83 % 0 lf 1010,4 hPa 0,0 l/m 0 min 0 min 0 W/m 33,8 km/h (5 Bft) 97,83 %
25.12.2017 19:10 5,3 C 5,0 C 4,4 C 84 % 0 lf 1010,5 hPa 0,0 l/m 0 min 0 min 0 W/m 27,0 km/h (4 Bft) 95,74 %
25.12.2017 19:12 5,3 C 5,0 C 4,4 C 84 % 0 lf 1010,5 hPa 0,0 l/m 0 min 0 min 0 W/m 27,0 km/h (4 Bft) 95,74 %
25.12.2017 19:14 5,3 C 5,0 C 4,4 C 84 % 0 lf 1010,4 hPa 0,0 l/m 0 min 0 min 0 W/m 24,8 km/h (4 Bft) 95,74 %
25.12.2017 19:16 5,3 C 5,0 C 4,4 C 84 % 0 lf 1010,4 hPa 0,0 l/m 0 min 0 min 0 W/m 24,8 km/h (4 Bft) 95,74 %
25.12.2017 19:18 5,3 C 5,0 C 4,4 C 84 % 0 lf 1010,4 hPa 0,0 l/m 0 min 0 min 0 W/m 38,3 km/h (5 Bft) 93,62 %
25.12.2017 19:20 5,3 C 5,0 C 4,4 C 84 % 0 lf 1010,4 hPa 0,0 l/m 0 min 0 min 0 W/m 27,0 km/h (4 Bft) 95,65 %
25.12.2017 19:22 5,3 C 5,0 C 4,4 C 84 % 0 lf 1010,4 hPa 0,0 l/m 0 min 0 min 0 W/m 24,8 km/h (4 Bft) 95,74 %
25.12.2017 19:24 5,3 C 5,0 C 4,4 C 84 % 0 lf 1010,4 hPa 0,0 l/m 0 min 0 min 0 W/m 38,3 km/h (5 Bft) 95,74 %
25.12.2017 19:26 5,3 C 5,0 C 4,4 C 84 % 0 lf 1010,3 hPa 0,0 l/m 0 min 0 min 0 W/m 36,0 km/h (5 Bft) 97,87 %
25.12.2017 19:28 5,3 C 5,0 C 4,4 C 84 % 0 lf 1010,3 hPa 0,0 l/m 0 min 0 min 0 W/m 22,5 km/h (4 Bft) 100,00 %
25.12.2017 19:30 5,3 C 5,0 C 4,4 C 84 % 0 lf 1010,2 hPa 0,0 l/m 0 min 0 min 0 W/m 31,5 km/h (5 Bft) 100,00 %
25.12.2017 19:32 5,3 C 5,0 C 4,4 C 84 % 0 lf 1010,2 hPa 0,0 l/m 0 min 0 min 0 W/m 24,8 km/h (4 Bft) 100,00 %
25.12.2017 19:34 5,3 C 5,0 C 4,4 C 84 % 0 lf 1010,2 hPa 0,0 l/m 0 min 0 min 0 W/m 24,8 km/h (4 Bft) 97,87 %
25.12.2017 19:36 5,3 C 5,0 C 4,4 C 84 % 0 lf 1010,1 hPa 0,0 l/m 0 min 0 min 0 W/m 31,5 km/h (5 Bft) 100,00 %
25.12.2017 19:38 5,3 C 5,0 C 3,9 C 84 % 0 lf 1010,1 hPa 0,0 l/m 0 min 0 min 0 W/m 36,0 km/h (5 Bft) 100,00 %
25.12.2017 19:40 5,3 C 5,0 C 3,9 C 84 % 0 lf 1010,1 hPa 0,0 l/m 0 min 0 min 0 W/m 33,8 km/h (5 Bft) 100,00 %
25.12.2017 19:42 5,2 C 5,0 C 3,9 C 84 % 0 lf 1010,1 hPa 0,0 l/m 0 min 0 min 0 W/m 40,6 km/h (6 Bft) 97,83 %
25.12.2017 19:44 5,2 C 5,0 C 3,9 C 84 % 0 lf 1010,1 hPa 0,0 l/m 0 min 0 min 0 W/m 27,0 km/h (4 Bft) 97,87 %
25.12.2017 19:46 5,2 C 5,0 C 3,9 C 84 % 0 lf 1010,1 hPa 0,0 l/m 0 min 0 min 0 W/m 27,0 km/h (4 Bft) 100,00 %
25.12.2017 19:48 5,2 C 5,0 C 3,9 C 84 % 0 lf 1010,0 hPa 0,0 l/m 0 min 0 min 0 W/m 38,3 km/h (5 Bft) 100,00 %
25.12.2017 19:50 5,2 C 5,0 C 3,9 C 84 % 0 lf 1010,0 hPa 0,0 l/m 0 min 0 min 0 W/m 33,8 km/h (5 Bft) 100,00 %
25.12.2017 19:52 5,2 C 5,0 C 3,9 C 85 % 0 lf 1010,1 hPa 0,0 l/m 0 min 0 min 0 W/m 33,8 km/h (5 Bft) 97,87 %
25.12.2017 19:54 5,2 C 5,0 C 3,9 C 85 % 0 lf 1010,0 hPa 0,0 l/m 0 min 0 min 0 W/m 33,8 km/h (5 Bft) 97,83 %
25.12.2017 19:56 5,2 C 5,0 C 3,9 C 85 % 0 lf 1010,1 hPa 0,0 l/m 0 min 0 min 0 W/m 24,8 km/h (4 Bft) 100,00 %
25.12.2017 19:58 5,2 C 5,0 C 3,9 C 85 % 0 lf 1010,0 hPa 0,0 l/m 0 min 0 min 0 W/m 31,5 km/h (5 Bft) 100,00 %
25.12.2017 20:00 5,2 C 5,0 C 3,9 C 84 % 0 lf 1009,9 hPa 0,0 l/m 0 min 0 min 0 W/m 31,5 km/h (5 Bft) 100,00 %
25.12.2017 20:02 5,1 C 5,0 C 3,9 C 84 % 0 lf 1010,0 hPa 0,0 l/m 0 min 0 min 0 W/m 31,5 km/h (5 Bft) 100,00 %
25.12.2017 20:04 5,1 C 5,0 C 3,9 C 84 % 0 lf 1010,0 hPa 0,0 l/m 0 min 0 min 0 W/m 29,3 km/h (5 Bft) 100,00 %
25.12.2017 20:06 5,1 C 5,0 C 3,9 C 84 % 0 lf 1010,0 hPa 0,0 l/m 0 min 0 min 0 W/m 33,8 km/h (5 Bft) 100,00 %
25.12.2017 20:08 5,1 C 5,0 C 3,9 C 84 % 0 lf 1009,9 hPa 0,0 l/m 0 min 0 min 0 W/m 29,3 km/h (5 Bft) 100,00 %
25.12.2017 20:10 5,1 C 5,0 C 3,9 C 84 % 0 lf 1009,8 hPa 0,0 l/m 0 min 0 min 0 W/m 31,5 km/h (5 Bft) 100,00 %
25.12.2017 20:12 5,1 C 5,0 C 3,9 C 84 % 0 lf 1009,9 hPa 0,0 l/m 0 min 0 min 0 W/m 31,5 km/h (5 Bft) 100,00 %
25.12.2017 20:14 5,1 C 5,0 C 3,9 C 84 % 0 lf 1009,9 hPa 0,0 l/m 0 min 0 min 0 W/m 20,3 km/h (4 Bft) 97,87 %
25.12.2017 20:16 5,1 C 5,0 C 3,9 C 84 % 0 lf 1009,9 hPa 0,0 l/m 0 min 0 min 0 W/m 24,8 km/h (4 Bft) 97,87 %
25.12.2017 20:18 5,1 C 5,0 C 3,9 C 84 % 0 lf 1009,8 hPa 0,0 l/m 0 min 0 min 0 W/m 24,8 km/h (4 Bft) 100,00 %
25.12.2017 20:20 5,1 C 5,0 C 3,9 C 84 % 0 lf 1009,9 hPa 0,0 l/m 0 min 0 min 0 W/m 29,3 km/h (5 Bft) 97,87 %
25.12.2017 20:22 5,1 C 5,0 C 3,9 C 84 % 0 lf 1009,9 hPa 0,0 l/m 0 min 0 min 0 W/m 36,0 km/h (5 Bft) 100,00 %
25.12.2017 20:24 5,1 C 5,0 C 3,9 C 84 % 0 lf 1009,9 hPa 0,0 l/m 0 min 0 min 0 W/m 22,5 km/h (4 Bft) 97,87 %
25.12.2017 20:26 5,1 C 5,0 C 3,9 C 84 % 0 lf 1009,8 hPa 0,0 l/m 0 min 0 min 0 W/m 31,5 km/h (5 Bft) 97,87 %
25.12.2017 20:28 5,1 C 5,0 C 3,9 C 85 % 0 lf 1009,7 hPa 0,0 l/m 0 min 0 min 0 W/m 27,0 km/h (4 Bft) 100,00 %
25.12.2017 20:30 5,1 C 5,0 C 3,9 C 85 % 0 lf 1009,6 hPa 0,0 l/m 0 min 0 min 0 W/m 33,8 km/h (5 Bft) 97,83 %
25.12.2017 20:32 5,1 C 5,0 C 3,9 C 85 % 0 lf 1009,6 hPa 0,0 l/m 0 min 0 min 0 W/m 20,3 km/h (4 Bft) 100,00 %
25.12.2017 20:34 5,2 C 5,0 C 3,9 C 85 % 0 lf 1009,5 hPa 0,0 l/m 0 min 0 min 0 W/m 18,0 km/h (3 Bft) 100,00 %
25.12.2017 20:36 5,1 C 5,0 C 3,9 C 85 % 0 lf 1009,4 hPa 0,0 l/m 0 min 0 min 0 W/m 40,6 km/h (6 Bft) 97,87 %
25.12.2017 20:38 5,2 C 5,0 C 3,9 C 85 % 0 lf 1009,5 hPa 0,0 l/m 0 min 0 min 0 W/m 31,5 km/h (5 Bft) 97,87 %
25.12.2017 20:40 5,2 C 5,0 C 3,9 C 85 % 0 lf 1009,3 hPa 0,0 l/m 0 min 0 min 0 W/m 40,6 km/h (6 Bft) 100,00 %
25.12.2017 20:42 5,1 C 5,0 C 3,9 C 85 % 0 lf 1009,3 hPa 0,0 l/m 0 min 0 min 0 W/m 33,8 km/h (5 Bft) 100,00 %
25.12.2017 20:44 5,1 C 5,0 C 3,9 C 85 % 0 lf 1009,3 hPa 0,0 l/m 0 min 0 min 0 W/m 38,3 km/h (5 Bft) 97,87 %
25.12.2017 20:46 5,1 C 5,0 C 3,9 C 85 % 0 lf 1009,3 hPa 0,0 l/m 0 min 0 min 0 W/m 33,8 km/h (5 Bft) 100,00 %
25.12.2017 20:48 5,1 C 5,0 C 3,9 C 85 % 0 lf 1009,1 hPa 0,0 l/m 0 min 0 min 0 W/m 27,0 km/h (4 Bft) 95,74 %
25.12.2017 20:50 5,1 C 5,0 C 3,9 C 85 % 0 lf 1009,1 hPa 0,0 l/m 0 min 0 min 0 W/m 22,5 km/h (4 Bft) 97,87 %
25.12.2017 20:52 5,1 C 5,0 C 3,9 C 85 % 0 lf 1009,1 hPa 0,0 l/m 0 min 0 min 0 W/m 36,0 km/h (5 Bft) 97,83 %
25.12.2017 20:54 5,1 C 5,0 C 3,9 C 85 % 0 lf 1009,1 hPa 0,0 l/m 0 min 0 min 0 W/m 31,5 km/h (5 Bft) 97,87 %
25.12.2017 20:56 5,1 C 5,0 C 3,9 C 85 % 0 lf 1009,1 hPa 0,0 l/m 0 min 0 min 0 W/m 27,0 km/h (4 Bft) 95,74 %
25.12.2017 20:58 5,1 C 5,0 C 3,9 C 85 % 0 lf 1009,0 hPa 0,0 l/m 0 min 0 min 0 W/m 38,3 km/h (5 Bft) 97,87 %
25.12.2017 21:00 5,1 C 5,0 C 3,9 C 85 % 0 lf 1009,0 hPa 0,0 l/m 0 min 0 min 0 W/m 38,3 km/h (5 Bft) 97,87 %
25.12.2017 21:02 5,0 C 5,0 C 3,9 C 85 % 0 lf 1008,9 hPa 0,0 l/m 0 min 0 min 0 W/m 38,3 km/h (5 Bft) 95,74 %
25.12.2017 21:04 4,9 C 5,0 C 3,9 C 84 % 0 lf 1008,9 hPa 0,0 l/m 0 min 0 min 0 W/m 29,3 km/h (5 Bft) 95,65 %
25.12.2017 21:06 4,9 C 5,0 C 3,9 C 84 % 0 lf 1008,9 hPa 0,0 l/m 0 min 0 min 0 W/m 45,1 km/h (6 Bft) 97,87 %
25.12.2017 21:08 4,9 C 4,4 C 3,9 C 84 % 0 lf 1008,8 hPa 0,0 l/m 0 min 0 min 0 W/m 33,8 km/h (5 Bft) 91,49 %
25.12.2017 21:10 4,9 C 4,4 C 3,9 C 84 % 0 lf 1008,8 hPa 0,0 l/m 0 min 0 min 0 W/m 33,8 km/h (5 Bft) 95,74 %
25.12.2017 21:12 4,8 C 4,4 C 3,9 C 84 % 0 lf 1008,8 hPa 0,0 l/m 0 min 0 min 0 W/m 31,5 km/h (5 Bft) 95,74 %
25.12.2017 21:14 4,8 C 4,4 C 3,9 C 84 % 0 lf 1008,8 hPa 0,0 l/m 0 min 0 min 0 W/m 27,0 km/h (4 Bft) 95,74 %
25.12.2017 21:16 4,8 C 4,4 C 3,3 C 84 % 0 lf 1008,7 hPa 0,0 l/m 0 min 0 min 0 W/m 24,8 km/h (4 Bft) 93,48 %
25.12.2017 21:18 4,7 C 4,4 C 3,3 C 84 % 0 lf 1008,7 hPa 0,0 l/m 0 min 0 min 0 W/m 29,3 km/h (5 Bft) 93,62 %
25.12.2017 21:20 4,7 C 4,4 C 3,3 C 84 % 0 lf 1008,6 hPa 0,0 l/m 0 min 0 min 0 W/m 36,0 km/h (5 Bft) 97,87 %
25.12.2017 21:22 4,7 C 4,4 C 3,3 C 84 % 0 lf 1008,6 hPa 0,0 l/m 0 min 0 min 0 W/m 29,3 km/h (5 Bft) 97,87 %
25.12.2017 21:24 4,7 C 4,4 C 3,3 C 84 % 0 lf 1008,5 hPa 0,0 l/m 0 min 0 min 0 W/m 27,0 km/h (4 Bft) 97,87 %
25.12.2017 21:26 4,6 C 4,4 C 3,3 C 84 % 0 lf 1008,6 hPa 0,0 l/m 0 min 0 min 0 W/m 27,0 km/h (4 Bft) 95,74 %
25.12.2017 21:28 4,6 C 4,4 C 3,3 C 84 % 0 lf 1008,6 hPa 0,0 l/m 0 min 0 min 0 W/m 29,3 km/h (5 Bft) 100,00 %
25.12.2017 21:30 4,6 C 4,4 C 3,3 C 84 % 0 lf 1008,6 hPa 0,0 l/m 0 min 0 min 0 W/m 27,0 km/h (4 Bft) 100,00 %
25.12.2017 21:32 4,6 C 4,4 C 3,3 C 84 % 0 lf 1008,6 hPa 0,0 l/m 0 min 0 min 0 W/m 20,3 km/h (4 Bft) 95,74 %
25.12.2017 21:34 4,6 C 4,4 C 3,3 C 84 % 0 lf 1008,6 hPa 0,0 l/m 0 min 0 min 0 W/m 20,3 km/h (4 Bft) 95,74 %
25.12.2017 21:36 4,6 C 4,4 C 3,3 C 84 % 0 lf 1008,6 hPa 0,0 l/m 0 min 0 min 0 W/m 33,8 km/h (5 Bft) 93,62 %
25.12.2017 21:38 4,5 C 4,4 C 3,3 C 84 % 0 lf 1008,5 hPa 0,0 l/m 0 min 0 min 0 W/m 33,8 km/h (5 Bft) 97,83 %
25.12.2017 21:40 4,5 C 4,4 C 3,3 C 84 % 0 lf 1008,4 hPa 0,0 l/m 0 min 0 min 0 W/m 24,8 km/h (4 Bft) 95,74 %
25.12.2017 21:42 4,5 C 4,4 C 3,3 C 85 % 0 lf 1008,4 hPa 0,0 l/m 0 min 0 min 0 W/m 22,5 km/h (4 Bft) 85,11 %
25.12.2017 21:44 4,5 C 4,4 C 3,3 C 84 % 0 lf 1008,4 hPa 0,0 l/m 0 min 0 min 0 W/m 29,3 km/h (5 Bft) 93,62 %
25.12.2017 21:46 4,5 C 4,4 C 3,3 C 85 % 0 lf 1008,4 hPa 0,0 l/m 0 min 0 min 0 W/m 31,5 km/h (5 Bft) 93,62 %
25.12.2017 21:48 4,4 C 4,4 C 3,3 C 85 % 0 lf 1008,4 hPa 0,0 l/m 0 min 0 min 0 W/m 27,0 km/h (4 Bft) 93,62 %
25.12.2017 21:50 4,5 C 4,4 C 3,3 C 85 % 0 lf 1008,3 hPa 0,0 l/m 0 min 0 min 0 W/m 18,0 km/h (3 Bft) 95,65 %
25.12.2017 21:52 4,4 C 4,4 C 3,3 C 85 % 0 lf 1008,2 hPa 0,0 l/m 0 min 0 min 0 W/m 36,0 km/h (5 Bft) 97,87 %
25.12.2017 21:54 4,4 C 4,4 C 3,3 C 85 % 0 lf 1008,2 hPa 0,0 l/m 0 min 0 min 0 W/m 31,5 km/h (5 Bft) 95,74 %
25.12.2017 21:56 4,4 C 4,4 C 3,3 C 85 % 0 lf 1008,2 hPa 0,0 l/m 0 min 0 min 0 W/m 36,0 km/h (5 Bft) 91,49 %
25.12.2017 21:58 4,4 C 4,4 C 3,3 C 85 % 0 lf 1008,1 hPa 0,0 l/m 0 min 0 min 0 W/m 27,0 km/h (4 Bft) 91,49 %
25.12.2017 22:00 4,4 C 4,4 C 3,3 C 85 % 0 lf 1008,1 hPa 0,0 l/m 0 min 0 min 0 W/m 20,3 km/h (4 Bft) 95,74 %
25.12.2017 22:02 4,4 C 4,4 C 3,3 C 86 % 0 lf 1008,1 hPa 0,0 l/m 0 min 0 min 0 W/m 24,8 km/h (4 Bft) 91,30 %
25.12.2017 22:04 4,4 C 4,4 C 3,3 C 85 % 0 lf 1008,2 hPa 0,0 l/m 0 min 0 min 0 W/m 31,5 km/h (5 Bft) 91,49 %
25.12.2017 22:06 4,4 C 4,4 C 3,3 C 86 % 0 lf 1008,1 hPa 0,0 l/m 0 min 0 min 0 W/m 33,8 km/h (5 Bft) 93,62 %
25.12.2017 22:08 4,4 C 4,4 C 3,3 C 86 % 0 lf 1008,1 hPa 0,0 l/m 0 min 0 min 0 W/m 20,3 km/h (4 Bft) 95,74 %
25.12.2017 22:10 4,4 C 4,4 C 3,3 C 86 % 0 lf 1008,1 hPa 0,0 l/m 0 min 0 min 0 W/m 33,8 km/h (5 Bft) 95,74 %
25.12.2017 22:12 4,4 C 4,4 C 3,3 C 86 % 0 lf 1008,1 hPa 0,0 l/m 0 min 0 min 0 W/m 45,1 km/h (6 Bft) 95,74 %
25.12.2017 22:14 4,4 C 4,4 C 3,3 C 86 % 0 lf 1007,9 hPa 0,0 l/m 0 min 0 min 0 W/m 31,5 km/h (5 Bft) 95,65 %
25.12.2017 22:16 4,4 C 4,4 C 3,3 C 86 % 0 lf 1008,1 hPa 0,0 l/m 0 min 0 min 0 W/m 29,3 km/h (5 Bft) 93,62 %
25.12.2017 22:18 4,4 C 4,4 C 3,3 C 86 % 0 lf 1008,0 hPa 0,0 l/m 0 min 0 min 0 W/m 38,3 km/h (5 Bft) 95,74 %
25.12.2017 22:20 4,4 C 4,4 C 3,3 C 86 % 0 lf 1007,9 hPa 0,0 l/m 0 min 0 min 0 W/m 47,3 km/h (6 Bft) 95,74 %
25.12.2017 22:22 4,4 C 4,4 C 3,3 C 86 % 0 lf 1007,9 hPa 0,0 l/m 0 min 0 min 0 W/m 24,8 km/h (4 Bft) 97,87 %
25.12.2017 22:24 4,4 C 4,4 C 3,3 C 86 % 0 lf 1007,9 hPa 0,0 l/m 0 min 0 min 0 W/m 40,6 km/h (6 Bft) 95,74 %
25.12.2017 22:26 4,4 C 4,4 C 3,3 C 86 % 0 lf 1007,8 hPa 0,0 l/m 0 min 0 min 0 W/m 33,8 km/h (5 Bft) 97,83 %
25.12.2017 22:28 4,4 C 4,4 C 3,3 C 86 % 0 lf 1007,7 hPa 0,0 l/m 0 min 0 min 0 W/m 38,3 km/h (5 Bft) 95,74 %
25.12.2017 22:30 4,3 C 4,4 C 3,3 C 86 % 0 lf 1007,8 hPa 0,0 l/m 0 min 0 min 0 W/m 36,0 km/h (5 Bft) 93,62 %
25.12.2017 22:32 4,3 C 4,4 C 3,3 C 86 % 0 lf 1007,8 hPa 0,0 l/m 0 min 0 min 0 W/m 33,8 km/h (5 Bft) 97,87 %
25.12.2017 22:34 4,3 C 4,4 C 3,3 C 86 % 0 lf 1007,8 hPa 0,0 l/m 0 min 0 min 0 W/m 29,3 km/h (5 Bft) 97,87 %
25.12.2017 22:36 4,3 C 4,4 C 3,3 C 86 % 0 lf 1007,8 hPa 0,0 l/m 0 min 0 min 0 W/m 29,3 km/h (5 Bft) 95,74 %
25.12.2017 22:38 4,3 C 4,4 C 3,3 C 86 % 0 lf 1007,7 hPa 0,0 l/m 0 min 0 min 0 W/m 24,8 km/h (4 Bft) 97,83 %
25.12.2017 22:40 4,3 C 3,9 C 3,3 C 86 % 0 lf 1007,6 hPa 0,0 l/m 0 min 0 min 0 W/m 42,8 km/h (6 Bft) 95,74 %
25.12.2017 22:42 4,3 C 3,9 C 3,3 C 86 % 0 lf 1007,6 hPa 0,0 l/m 0 min 0 min 0 W/m 36,0 km/h (5 Bft) 91,49 %
25.12.2017 22:44 4,2 C 3,9 C 3,3 C 86 % 0 lf 1007,6 hPa 0,0 l/m 0 min 0 min 0 W/m 45,1 km/h (6 Bft) 95,74 %
25.12.2017 22:46 4,2 C 3,9 C 3,3 C 86 % 0 lf 1007,6 hPa 0,0 l/m 0 min 0 min 0 W/m 33,8 km/h (5 Bft) 93,62 %
25.12.2017 22:48 4,2 C 3,9 C 3,3 C 86 % 0 lf 1007,6 hPa 0,0 l/m 0 min 0 min 0 W/m 24,8 km/h (4 Bft) 93,48 %
25.12.2017 22:50 4,2 C 3,9 C 3,3 C 86 % 0 lf 1007,6 hPa 0,0 l/m 0 min 0 min 0 W/m 24,8 km/h (4 Bft) 95,74 %
25.12.2017 22:52 4,2 C 3,9 C 3,3 C 86 % 0 lf 1007,7 hPa 0,0 l/m 0 min 0 min 0 W/m 29,3 km/h (5 Bft) 97,87 %
25.12.2017 22:54 4,2 C 3,9 C 3,3 C 86 % 0 lf 1007,7 hPa 0,0 l/m 0 min 0 min 0 W/m 31,5 km/h (5 Bft) 95,74 %
25.12.2017 22:56 4,2 C 3,9 C 3,3 C 86 % 0 lf 1007,7 hPa 0,0 l/m 0 min 0 min 0 W/m 29,3 km/h (5 Bft) 93,62 %
25.12.2017 22:58 4,1 C 3,9 C 3,3 C 86 % 0 lf 1007,6 hPa 0,0 l/m 0 min 0 min 0 W/m 29,3 km/h (5 Bft) 95,74 %
25.12.2017 23:00 4,1 C 3,9 C 3,3 C 86 % 0 lf 1007,5 hPa 0,0 l/m 0 min 0 min 0 W/m 29,3 km/h (5 Bft) 93,48 %
25.12.2017 23:02 4,1 C 3,9 C 3,3 C 86 % 0 lf 1007,5 hPa 0,0 l/m 0 min 0 min 0 W/m 29,3 km/h (5 Bft) 91,49 %
25.12.2017 23:04 4,1 C 3,9 C 3,3 C 86 % 0 lf 1007,3 hPa 0,0 l/m 0 min 0 min 0 W/m 29,3 km/h (5 Bft) 100,00 %
25.12.2017 23:06 4,1 C 3,9 C 3,3 C 86 % 0 lf 1007,3 hPa 0,0 l/m 0 min 0 min 0 W/m 31,5 km/h (5 Bft) 97,87 %
25.12.2017 23:08 4,1 C 3,9 C 3,3 C 86 % 0 lf 1007,2 hPa 0,0 l/m 0 min 0 min 0 W/m 36,0 km/h (5 Bft) 97,87 %
25.12.2017 23:10 4,1 C 3,9 C 3,3 C 86 % 0 lf 1007,2 hPa 0,0 l/m 0 min 0 min 0 W/m 31,5 km/h (5 Bft) 95,74 %
25.12.2017 23:12 4,1 C 3,9 C 3,3 C 86 % 0 lf 1007,3 hPa 0,0 l/m 0 min 0 min 0 W/m 38,3 km/h (5 Bft) 95,65 %
25.12.2017 23:14 4,1 C 3,9 C 3,3 C 85 % 0 lf 1007,2 hPa 0,0 l/m 0 min 0 min 0 W/m 33,8 km/h (5 Bft) 97,87 %
25.12.2017 23:16 4,1 C 3,9 C 3,3 C 85 % 0 lf 1007,1 hPa 0,0 l/m 0 min 0 min 0 W/m 27,0 km/h (4 Bft) 100,00 %
25.12.2017 23:18 4,1 C 3,9 C 3,3 C 85 % 0 lf 1007,0 hPa 0,0 l/m 0 min 0 min 0 W/m 20,3 km/h (4 Bft) 100,00 %
25.12.2017 23:20 4,1 C 3,9 C 3,3 C 85 % 0 lf 1006,9 hPa 0,0 l/m 0 min 0 min 0 W/m 20,3 km/h (4 Bft) 100,00 %
25.12.2017 23:22 4,1 C 3,9 C 3,3 C 85 % 0 lf 1007,0 hPa 0,0 l/m 0 min 0 min 0 W/m 29,3 km/h (5 Bft) 100,00 %
25.12.2017 23:24 4,1 C 3,9 C 3,3 C 86 % 0 lf 1006,9 hPa 0,0 l/m 0 min 0 min 0 W/m 38,3 km/h (5 Bft) 100,00 %
25.12.2017 23:26 4,1 C 4,4 C 3,3 C 85 % 0 lf 1006,9 hPa 0,0 l/m 0 min 0 min 0 W/m 40,6 km/h (6 Bft) 100,00 %
25.12.2017 23:28 4,1 C 4,4 C 3,3 C 85 % 0 lf 1007,0 hPa 0,0 l/m 0 min 0 min 0 W/m 24,8 km/h (4 Bft) 95,74 %
25.12.2017 23:30 4,2 C 4,4 C 3,3 C 85 % 0 lf 1007,1 hPa 0,0 l/m 0 min 0 min 0 W/m 36,0 km/h (5 Bft) 100,00 %
25.12.2017 23:32 4,2 C 4,4 C 3,3 C 85 % 0 lf 1007,0 hPa 0,0 l/m 0 min 0 min 0 W/m 27,0 km/h (4 Bft) 100,00 %
25.12.2017 23:34 4,2 C 4,4 C 3,3 C 85 % 0 lf 1006,9 hPa 0,0 l/m 0 min 0 min 0 W/m 29,3 km/h (5 Bft) 95,74 %
25.12.2017 23:36 4,2 C 4,4 C 3,3 C 85 % 0 lf 1006,9 hPa 0,0 l/m 0 min 0 min 0 W/m 22,5 km/h (4 Bft) 100,00 %
25.12.2017 23:38 4,2 C 4,4 C 3,3 C 85 % 0 lf 1006,9 hPa 0,0 l/m 0 min 0 min 0 W/m 33,8 km/h (5 Bft) 100,00 %
25.12.2017 23:40 4,2 C 4,4 C 3,3 C 85 % 0 lf 1006,8 hPa 0,0 l/m 0 min 0 min 0 W/m 27,0 km/h (4 Bft) 93,62 %
25.12.2017 23:42 4,2 C 4,4 C 3,3 C 85 % 0 lf 1006,8 hPa 0,0 l/m 0 min 0 min 0 W/m 18,0 km/h (3 Bft) 93,62 %
25.12.2017 23:44 4,2 C 4,4 C 3,3 C 85 % 0 lf 1006,8 hPa 0,0 l/m 0 min 0 min 0 W/m 22,5 km/h (4 Bft) 100,00 %
25.12.2017 23:46 4,2 C 4,4 C 3,3 C 85 % 0 lf 1006,8 hPa 0,0 l/m 0 min 0 min 0 W/m 20,3 km/h (4 Bft) 97,87 %
25.12.2017 23:48 4,2 C 4,4 C 3,3 C 85 % 0 lf 1006,9 hPa 0,0 l/m 0 min 0 min 0 W/m 27,0 km/h (4 Bft) 100,00 %
25.12.2017 23:50 4,2 C 4,4 C 3,3 C 85 % 0 lf 1006,8 hPa 0,0 l/m 0 min 0 min 0 W/m 22,5 km/h (4 Bft) 95,74 %
25.12.2017 23:52 4,2 C 3,9 C 3,3 C 85 % 0 lf 1006,7 hPa 0,0 l/m 0 min 0 min 0 W/m 20,3 km/h (4 Bft) 100,00 %
25.12.2017 23:54 4,2 C 3,9 C 2,8 C 85 % 0 lf 1006,7 hPa 0,0 l/m 0 min 0 min 0 W/m 24,8 km/h (4 Bft) 97,87 %
25.12.2017 23:56 4,2 C 3,9 C 2,8 C 85 % 0 lf 1006,6 hPa 0,0 l/m 0 min 0 min 0 W/m 24,8 km/h (4 Bft) 95,74 %
25.12.2017 23:58 4,2 C 3,9 C 2,8 C 85 % 0 lf 1006,6 hPa 0,0 l/m 0 min 0 min 0 W/m 20,3 km/h (4 Bft) 95,74 %
_ Min-Zeit 22:58 22:40 23:54 15:22 00:00 23:56 - - - - 04:06 21:42
Minimum _ 4,1 C 3,9 C 2,8 C 83 % 0 lf 1006,6 hPa - - - - 9,0 km/h (2 Bft) 85,11 %
_ Max-Zeit 00:00 00:00 00:00 02:48 02:28 00:00 00:00 00:00 00:00 13:14 22:20 00:26
Maximum _ 8,7 C 8,3 C 7,2 C 95 % 9 lf 1021,1 hPa 0,0 l/m 0 min 0 min 52 W/m 47,3 km/h
S (6 Bft)
100,00 %
Durchschnitt _ 6,9 C 6,7 C 5,7 C 88 % 0 lf 1015,2 hPa #0,0 l/m #0 min. #0 min. 24 W/m 25,0 km/h (4 Bft) 96,60 %
© 2017 W. Hausmann